Wetterdaten: Sonntag, 08.05.2016
Datum Zeit Temp. Aussen Temp. o. S. +5cm Feuchte Auss BlattFeu 1 Luftdruck Regen Sonnenschein Regendauer Solar Windben Empfang
08.05.2016 00:00 17,8 C 18,3 C 14,4 C 58 % 0 lf 1009,4 hPa 0,0 l/m 0 min 0 min 0 W/m 14,6 km/h (3 Bft) 87,23 %
08.05.2016 00:02 17,8 C 18,3 C 14,4 C 58 % 0 lf 1009,4 hPa 0,0 l/m 0 min 0 min 0 W/m 16,7 km/h (3 Bft) 97,30 %
08.05.2016 00:08 17,8 C 18,3 C 14,4 C 58 % 0 lf 1009,4 hPa 0,0 l/m 0 min 0 min 0 W/m 14,6 km/h (3 Bft) 100,00 %
08.05.2016 00:10 17,8 C 17,8 C 14,4 C 58 % 0 lf 1009,4 hPa 0,0 l/m 0 min 0 min 0 W/m 12,6 km/h (3 Bft) 95,45 %
08.05.2016 00:12 17,8 C 17,8 C 14,4 C 58 % 0 lf 1009,4 hPa 0,0 l/m 0 min 0 min 0 W/m 12,6 km/h (3 Bft) 95,74 %
08.05.2016 00:14 17,8 C 17,8 C 14,4 C 58 % 0 lf 1009,5 hPa 0,0 l/m 0 min 0 min 0 W/m 12,6 km/h (3 Bft) 97,87 %
08.05.2016 00:16 17,8 C 17,8 C 14,4 C 58 % 0 lf 1009,5 hPa 0,0 l/m 0 min 0 min 0 W/m 12,6 km/h (3 Bft) 95,74 %
08.05.2016 00:18 17,8 C 18,3 C 14,4 C 58 % 0 lf 1009,5 hPa 0,0 l/m 0 min 0 min 0 W/m 12,6 km/h (3 Bft) 100,00 %
08.05.2016 00:20 17,8 C 18,3 C 14,4 C 58 % 0 lf 1009,5 hPa 0,0 l/m 0 min 0 min 0 W/m 10,5 km/h (2 Bft) 92,86 %
08.05.2016 00:22 17,8 C 18,3 C 14,4 C 58 % 0 lf 1009,5 hPa 0,0 l/m 0 min 0 min 0 W/m 12,6 km/h (3 Bft) 100,00 %
08.05.2016 00:24 17,9 C 18,3 C 15,6 C 58 % 0 lf 1009,5 hPa 0,0 l/m 0 min 0 min 0 W/m 12,6 km/h (3 Bft) 95,74 %
08.05.2016 00:26 17,9 C 18,9 C 15,6 C 57 % 0 lf 1009,5 hPa 0,0 l/m 0 min 0 min 0 W/m 18,8 km/h (3 Bft) 100,00 %
08.05.2016 00:28 17,9 C 18,9 C 16,1 C 57 % 0 lf 1009,5 hPa 0,0 l/m 0 min 0 min 0 W/m 23,0 km/h (4 Bft) 97,87 %
08.05.2016 00:30 18,0 C 18,9 C 16,1 C 57 % 0 lf 1009,5 hPa 0,0 l/m 0 min 0 min 0 W/m 16,7 km/h (3 Bft) 97,83 %
08.05.2016 00:32 18,0 C 18,3 C 16,1 C 57 % 0 lf 1009,5 hPa 0,0 l/m 0 min 0 min 0 W/m 16,7 km/h (3 Bft) 93,62 %
08.05.2016 00:34 18,1 C 18,9 C 16,1 C 57 % 0 lf 1009,6 hPa 0,0 l/m 0 min 0 min 0 W/m 14,6 km/h (3 Bft) 93,62 %
08.05.2016 00:36 18,1 C 18,3 C 15,6 C 57 % 0 lf 1009,5 hPa 0,0 l/m 0 min 0 min 0 W/m 16,7 km/h (3 Bft) 93,62 %
08.05.2016 00:38 18,1 C 18,3 C 15,6 C 57 % 0 lf 1009,6 hPa 0,0 l/m 0 min 0 min 0 W/m 16,7 km/h (3 Bft) 95,74 %
08.05.2016 00:40 18,1 C 18,3 C 15,6 C 57 % 0 lf 1009,5 hPa 0,0 l/m 0 min 0 min 0 W/m 14,6 km/h (3 Bft) 95,74 %
08.05.2016 00:42 18,2 C 18,3 C 15,6 C 56 % 0 lf 1009,6 hPa 0,0 l/m 0 min 0 min 0 W/m 14,6 km/h (3 Bft) 95,65 %
08.05.2016 00:44 18,2 C 18,3 C 15,6 C 56 % 0 lf 1009,6 hPa 0,0 l/m 0 min 0 min 0 W/m 16,7 km/h (3 Bft) 95,74 %
08.05.2016 00:46 18,2 C 18,3 C 16,1 C 56 % 0 lf 1009,7 hPa 0,0 l/m 0 min 0 min 0 W/m 14,6 km/h (3 Bft) 93,62 %
08.05.2016 00:48 18,2 C 18,3 C 15,6 C 56 % 0 lf 1009,7 hPa 0,0 l/m 0 min 0 min 0 W/m 16,7 km/h (3 Bft) 95,74 %
08.05.2016 00:50 18,2 C 18,3 C 15,6 C 56 % 0 lf 1009,7 hPa 0,0 l/m 0 min 0 min 0 W/m 14,6 km/h (3 Bft) 95,74 %
08.05.2016 00:52 18,2 C 17,8 C 15,6 C 56 % 0 lf 1009,7 hPa 0,0 l/m 0 min 0 min 0 W/m 16,7 km/h (3 Bft) 93,62 %
08.05.2016 00:54 18,2 C 18,3 C 15,6 C 56 % 0 lf 1009,7 hPa 0,0 l/m 0 min 0 min 0 W/m 18,8 km/h (3 Bft) 95,65 %
08.05.2016 00:56 18,2 C 18,3 C 15,6 C 56 % 0 lf 1009,7 hPa 0,0 l/m 0 min 0 min 0 W/m 12,6 km/h (3 Bft) 95,74 %
08.05.2016 00:58 18,2 C 17,8 C 15,6 C 56 % 0 lf 1009,8 hPa 0,0 l/m 0 min 0 min 0 W/m 12,6 km/h (3 Bft) 97,87 %
08.05.2016 01:00 18,2 C 17,8 C 15,6 C 56 % 0 lf 1009,8 hPa 0,0 l/m 0 min 0 min 0 W/m 10,5 km/h (2 Bft) 93,62 %
08.05.2016 01:02 18,2 C 17,8 C 15,6 C 56 % 0 lf 1009,8 hPa 0,0 l/m 0 min 0 min 0 W/m 14,6 km/h (3 Bft) 87,23 %
08.05.2016 01:04 18,2 C 17,8 C 15,6 C 56 % 0 lf 1009,8 hPa 0,0 l/m 0 min 0 min 0 W/m 18,8 km/h (3 Bft) 91,49 %
08.05.2016 01:06 18,2 C 17,8 C 15,0 C 56 % 0 lf 1009,8 hPa 0,0 l/m 0 min 0 min 0 W/m 10,5 km/h (2 Bft) 93,48 %
08.05.2016 01:08 18,2 C 17,8 C 15,0 C 56 % 0 lf 1009,8 hPa 0,0 l/m 0 min 0 min 0 W/m 10,5 km/h (2 Bft) 93,62 %
08.05.2016 01:10 18,2 C 17,2 C 15,0 C 56 % 0 lf 1009,8 hPa 0,0 l/m 0 min 0 min 0 W/m 14,6 km/h (3 Bft) 91,49 %
08.05.2016 01:12 18,2 C 17,2 C 15,0 C 56 % 0 lf 1009,8 hPa 0,0 l/m 0 min 0 min 0 W/m 12,6 km/h (3 Bft) 93,62 %
08.05.2016 01:14 18,1 C 17,2 C 15,0 C 56 % 0 lf 1009,8 hPa 0,0 l/m 0 min 0 min 0 W/m 14,6 km/h (3 Bft) 91,49 %
08.05.2016 01:16 18,1 C 17,8 C 15,0 C 56 % 0 lf 1009,8 hPa 0,0 l/m 0 min 0 min 0 W/m 8,4 km/h (2 Bft) 95,74 %
08.05.2016 01:18 18,1 C 17,2 C 15,0 C 56 % 0 lf 1009,8 hPa 0,0 l/m 0 min 0 min 0 W/m 6,3 km/h (2 Bft) 95,65 %
08.05.2016 01:20 18,1 C 17,2 C 14,4 C 57 % 0 lf 1009,8 hPa 0,0 l/m 0 min 0 min 0 W/m 6,3 km/h (2 Bft) 89,36 %
08.05.2016 01:22 18,0 C 17,2 C 14,4 C 57 % 0 lf 1009,8 hPa 0,0 l/m 0 min 0 min 0 W/m 6,3 km/h (2 Bft) 95,74 %
08.05.2016 01:24 18,0 C 17,2 C 14,4 C 57 % 0 lf 1009,9 hPa 0,0 l/m 0 min 0 min 0 W/m 6,3 km/h (2 Bft) 91,49 %
08.05.2016 01:26 17,9 C 16,7 C 14,4 C 57 % 0 lf 1009,8 hPa 0,0 l/m 0 min 0 min 0 W/m 8,4 km/h (2 Bft) 97,87 %
08.05.2016 01:28 17,9 C 16,7 C 13,9 C 57 % 0 lf 1009,9 hPa 0,0 l/m 0 min 0 min 0 W/m 8,4 km/h (2 Bft) 97,87 %
08.05.2016 01:30 17,9 C 16,7 C 13,9 C 57 % 0 lf 1009,9 hPa 0,0 l/m 0 min 0 min 0 W/m 6,3 km/h (2 Bft) 97,83 %
08.05.2016 01:32 17,8 C 16,7 C 13,9 C 57 % 0 lf 1009,9 hPa 0,0 l/m 0 min 0 min 0 W/m 10,5 km/h (2 Bft) 95,74 %
08.05.2016 01:34 17,8 C 16,7 C 13,9 C 57 % 0 lf 1009,9 hPa 0,0 l/m 0 min 0 min 0 W/m 8,4 km/h (2 Bft) 95,74 %
08.05.2016 01:36 17,7 C 16,7 C 13,9 C 57 % 0 lf 1009,9 hPa 0,0 l/m 0 min 0 min 0 W/m 8,4 km/h (2 Bft) 93,62 %
08.05.2016 01:38 17,7 C 16,7 C 13,9 C 57 % 0 lf 1010,0 hPa 0,0 l/m 0 min 0 min 0 W/m 12,6 km/h (3 Bft) 95,74 %
08.05.2016 01:40 17,6 C 16,7 C 13,9 C 57 % 0 lf 1010,0 hPa 0,0 l/m 0 min 0 min 0 W/m 8,4 km/h (2 Bft) 97,83 %
08.05.2016 01:42 17,6 C 16,7 C 13,9 C 57 % 0 lf 1010,0 hPa 0,0 l/m 0 min 0 min 0 W/m 12,6 km/h (3 Bft) 97,87 %
08.05.2016 01:44 17,5 C 16,7 C 13,9 C 57 % 0 lf 1009,9 hPa 0,0 l/m 0 min 0 min 0 W/m 8,4 km/h (2 Bft) 95,74 %
08.05.2016 01:46 17,4 C 16,7 C 13,9 C 58 % 0 lf 1009,9 hPa 0,0 l/m 0 min 0 min 0 W/m 10,5 km/h (2 Bft) 97,87 %
08.05.2016 01:48 17,4 C 16,7 C 13,9 C 58 % 0 lf 1010,0 hPa 0,0 l/m 0 min 0 min 0 W/m 14,6 km/h (3 Bft) 95,74 %
08.05.2016 01:50 17,3 C 16,7 C 13,9 C 58 % 0 lf 1010,0 hPa 0,0 l/m 0 min 0 min 0 W/m 10,5 km/h (2 Bft) 100,00 %
08.05.2016 01:52 17,2 C 16,7 C 13,9 C 58 % 0 lf 1010,1 hPa 0,0 l/m 0 min 0 min 0 W/m 12,6 km/h (3 Bft) 100,00 %
08.05.2016 01:54 17,2 C 16,7 C 14,4 C 58 % 0 lf 1010,0 hPa 0,0 l/m 0 min 0 min 0 W/m 14,6 km/h (3 Bft) 97,87 %
08.05.2016 01:56 17,2 C 16,7 C 14,4 C 58 % 0 lf 1010,0 hPa 0,0 l/m 0 min 0 min 0 W/m 8,4 km/h (2 Bft) 97,87 %
08.05.2016 01:58 17,2 C 17,2 C 14,4 C 57 % 0 lf 1010,0 hPa 0,0 l/m 0 min 0 min 0 W/m 10,5 km/h (2 Bft) 100,00 %
08.05.2016 02:00 17,1 C 17,2 C 14,4 C 57 % 0 lf 1010,1 hPa 0,0 l/m 0 min 0 min 0 W/m 14,6 km/h (3 Bft) 100,00 %
08.05.2016 02:02 17,1 C 16,7 C 14,4 C 58 % 0 lf 1010,0 hPa 0,0 l/m 0 min 0 min 0 W/m 10,5 km/h (2 Bft) 100,00 %
08.05.2016 02:04 17,1 C 16,7 C 15,0 C 58 % 0 lf 1010,1 hPa 0,0 l/m 0 min 0 min 0 W/m 10,5 km/h (2 Bft) 97,83 %
08.05.2016 02:06 17,1 C 16,7 C 15,0 C 58 % 0 lf 1010,2 hPa 0,0 l/m 0 min 0 min 0 W/m 10,5 km/h (2 Bft) 97,87 %
08.05.2016 02:08 17,1 C 16,7 C 14,4 C 58 % 0 lf 1010,2 hPa 0,0 l/m 0 min 0 min 0 W/m 10,5 km/h (2 Bft) 100,00 %
08.05.2016 02:10 17,1 C 16,7 C 14,4 C 58 % 0 lf 1010,1 hPa 0,0 l/m 0 min 0 min 0 W/m 10,5 km/h (2 Bft) 100,00 %
08.05.2016 02:12 17,0 C 16,7 C 14,4 C 58 % 0 lf 1010,2 hPa 0,0 l/m 0 min 0 min 0 W/m 10,5 km/h (2 Bft) 100,00 %
08.05.2016 02:14 17,0 C 16,7 C 14,4 C 59 % 0 lf 1010,2 hPa 0,0 l/m 0 min 0 min 0 W/m 8,4 km/h (2 Bft) 100,00 %
08.05.2016 02:16 17,0 C 16,7 C 14,4 C 59 % 0 lf 1010,2 hPa 0,0 l/m 0 min 0 min 0 W/m 10,5 km/h (2 Bft) 97,83 %
08.05.2016 02:18 16,9 C 16,7 C 14,4 C 59 % 0 lf 1010,2 hPa 0,0 l/m 0 min 0 min 0 W/m 12,6 km/h (3 Bft) 97,87 %
08.05.2016 02:20 16,9 C 16,7 C 14,4 C 59 % 0 lf 1010,1 hPa 0,0 l/m 0 min 0 min 0 W/m 10,5 km/h (2 Bft) 97,87 %
08.05.2016 02:22 16,9 C 16,7 C 14,4 C 59 % 0 lf 1010,2 hPa 0,0 l/m 0 min 0 min 0 W/m 10,5 km/h (2 Bft) 100,00 %
08.05.2016 02:24 16,8 C 16,7 C 14,4 C 59 % 0 lf 1010,2 hPa 0,0 l/m 0 min 0 min 0 W/m 10,5 km/h (2 Bft) 100,00 %
08.05.2016 02:26 16,8 C 16,7 C 14,4 C 59 % 0 lf 1010,2 hPa 0,0 l/m 0 min 0 min 0 W/m 12,6 km/h (3 Bft) 93,62 %
08.05.2016 02:28 16,8 C 16,7 C 14,4 C 59 % 0 lf 1010,2 hPa 0,0 l/m 0 min 0 min 0 W/m 10,5 km/h (2 Bft) 100,00 %
08.05.2016 02:30 16,8 C 16,7 C 14,4 C 59 % 0 lf 1010,2 hPa 0,0 l/m 0 min 0 min 0 W/m 14,6 km/h (3 Bft) 95,74 %
08.05.2016 02:32 16,7 C 16,1 C 14,4 C 59 % 0 lf 1010,3 hPa 0,0 l/m 0 min 0 min 0 W/m 14,6 km/h (3 Bft) 93,62 %
08.05.2016 02:34 16,7 C 16,1 C 14,4 C 59 % 0 lf 1010,2 hPa 0,0 l/m 0 min 0 min 0 W/m 16,7 km/h (3 Bft) 95,74 %
08.05.2016 02:36 16,7 C 16,1 C 13,9 C 59 % 0 lf 1010,2 hPa 0,0 l/m 0 min 0 min 0 W/m 14,6 km/h (3 Bft) 97,87 %
08.05.2016 02:38 16,7 C 16,1 C 13,9 C 59 % 0 lf 1010,2 hPa 0,0 l/m 0 min 0 min 0 W/m 12,6 km/h (3 Bft) 95,74 %
08.05.2016 02:40 16,7 C 16,1 C 13,9 C 59 % 0 lf 1010,1 hPa 0,0 l/m 0 min 0 min 0 W/m 16,7 km/h (3 Bft) 93,48 %
08.05.2016 02:42 16,6 C 16,1 C 13,9 C 59 % 0 lf 1010,2 hPa 0,0 l/m 0 min 0 min 0 W/m 14,6 km/h (3 Bft) 95,74 %
08.05.2016 02:44 16,6 C 16,1 C 13,9 C 59 % 0 lf 1010,2 hPa 0,0 l/m 0 min 0 min 0 W/m 10,5 km/h (2 Bft) 95,74 %
08.05.2016 02:46 16,6 C 16,1 C 13,9 C 59 % 0 lf 1010,2 hPa 0,0 l/m 0 min 0 min 0 W/m 12,6 km/h (3 Bft) 93,62 %
08.05.2016 02:48 16,5 C 16,1 C 13,9 C 59 % 0 lf 1010,2 hPa 0,0 l/m 0 min 0 min 0 W/m 14,6 km/h (3 Bft) 95,74 %
08.05.2016 02:50 16,5 C 16,7 C 14,4 C 59 % 0 lf 1010,2 hPa 0,0 l/m 0 min 0 min 0 W/m 12,6 km/h (3 Bft) 95,74 %
08.05.2016 02:52 16,5 C 16,7 C 14,4 C 59 % 0 lf 1010,2 hPa 0,0 l/m 0 min 0 min 0 W/m 12,6 km/h (3 Bft) 95,65 %
08.05.2016 02:54 16,5 C 16,7 C 14,4 C 59 % 0 lf 1010,2 hPa 0,0 l/m 0 min 0 min 0 W/m 12,6 km/h (3 Bft) 95,74 %
08.05.2016 02:56 16,4 C 16,7 C 14,4 C 59 % 0 lf 1010,2 hPa 0,0 l/m 0 min 0 min 0 W/m 12,6 km/h (3 Bft) 93,62 %
08.05.2016 02:58 16,4 C 16,1 C 14,4 C 59 % 0 lf 1010,2 hPa 0,0 l/m 0 min 0 min 0 W/m 10,5 km/h (2 Bft) 93,62 %
08.05.2016 03:00 16,4 C 16,1 C 13,9 C 59 % 0 lf 1010,2 hPa 0,0 l/m 0 min 0 min 0 W/m 10,5 km/h (2 Bft) 95,74 %
08.05.2016 03:02 16,4 C 16,1 C 13,9 C 59 % 0 lf 1010,3 hPa 0,0 l/m 0 min 0 min 0 W/m 10,5 km/h (2 Bft) 93,48 %
08.05.2016 03:04 16,4 C 16,1 C 13,9 C 59 % 0 lf 1010,2 hPa 0,0 l/m 0 min 0 min 0 W/m 8,4 km/h (2 Bft) 95,74 %
08.05.2016 03:06 16,4 C 15,6 C 13,9 C 60 % 0 lf 1010,3 hPa 0,0 l/m 0 min 0 min 0 W/m 8,4 km/h (2 Bft) 95,74 %
08.05.2016 03:08 16,4 C 15,6 C 13,9 C 60 % 0 lf 1010,2 hPa 0,0 l/m 0 min 0 min 0 W/m 8,4 km/h (2 Bft) 95,74 %
08.05.2016 03:10 16,4 C 15,6 C 13,3 C 60 % 0 lf 1010,3 hPa 0,0 l/m 0 min 0 min 0 W/m 8,4 km/h (2 Bft) 91,49 %
08.05.2016 03:12 16,3 C 15,6 C 13,3 C 60 % 0 lf 1010,2 hPa 0,0 l/m 0 min 0 min 0 W/m 6,3 km/h (2 Bft) 95,74 %
08.05.2016 03:14 16,3 C 15,6 C 13,3 C 60 % 0 lf 1010,2 hPa 0,0 l/m 0 min 0 min 0 W/m 10,5 km/h (2 Bft) 95,65 %
08.05.2016 03:16 16,3 C 15,6 C 12,8 C 60 % 0 lf 1010,2 hPa 0,0 l/m 0 min 0 min 0 W/m 6,3 km/h (2 Bft) 95,74 %
08.05.2016 03:18 16,2 C 15,6 C 12,8 C 60 % 0 lf 1010,3 hPa 0,0 l/m 0 min 0 min 0 W/m 8,4 km/h (2 Bft) 93,62 %
08.05.2016 03:20 16,2 C 15,6 C 12,8 C 60 % 0 lf 1010,3 hPa 0,0 l/m 0 min 0 min 0 W/m 6,3 km/h (2 Bft) 100,00 %
08.05.2016 03:22 16,2 C 15,0 C 12,8 C 60 % 0 lf 1010,3 hPa 0,0 l/m 0 min 0 min 0 W/m 8,4 km/h (2 Bft) 100,00 %
08.05.2016 03:24 16,2 C 15,0 C 12,8 C 60 % 0 lf 1010,2 hPa 0,0 l/m 0 min 0 min 0 W/m 8,4 km/h (2 Bft) 100,00 %
08.05.2016 03:26 16,1 C 15,0 C 12,8 C 60 % 0 lf 1010,2 hPa 0,0 l/m 0 min 0 min 0 W/m 8,4 km/h (2 Bft) 97,83 %
08.05.2016 03:28 16,1 C 14,4 C 12,2 C 60 % 0 lf 1010,2 hPa 0,0 l/m 0 min 0 min 0 W/m 8,4 km/h (2 Bft) 100,00 %
08.05.2016 03:30 16,1 C 14,4 C 12,2 C 60 % 0 lf 1010,2 hPa 0,0 l/m 0 min 0 min 0 W/m 8,4 km/h (2 Bft) 100,00 %
08.05.2016 03:32 16,0 C 14,4 C 12,2 C 60 % 0 lf 1010,2 hPa 0,0 l/m 0 min 0 min 0 W/m 12,6 km/h (3 Bft) 97,87 %
08.05.2016 03:34 15,9 C 15,0 C 12,8 C 61 % 0 lf 1010,2 hPa 0,0 l/m 0 min 0 min 0 W/m 14,6 km/h (3 Bft) 100,00 %
08.05.2016 03:36 15,9 C 15,0 C 12,8 C 61 % 0 lf 1010,2 hPa 0,0 l/m 0 min 0 min 0 W/m 10,5 km/h (2 Bft) 97,87 %
08.05.2016 03:38 15,8 C 15,0 C 12,8 C 61 % 0 lf 1010,2 hPa 0,0 l/m 0 min 0 min 0 W/m 12,6 km/h (3 Bft) 93,48 %
08.05.2016 03:40 15,8 C 15,0 C 12,8 C 61 % 0 lf 1010,3 hPa 0,0 l/m 0 min 0 min 0 W/m 10,5 km/h (2 Bft) 100,00 %
08.05.2016 03:42 15,7 C 15,6 C 12,8 C 61 % 0 lf 1010,3 hPa 0,0 l/m 0 min 0 min 0 W/m 12,6 km/h (3 Bft) 100,00 %
08.05.2016 03:44 15,7 C 15,6 C 12,8 C 61 % 0 lf 1010,2 hPa 0,0 l/m 0 min 0 min 0 W/m 8,4 km/h (2 Bft) 100,00 %
08.05.2016 03:46 15,7 C 15,0 C 12,8 C 61 % 0 lf 1010,2 hPa 0,0 l/m 0 min 0 min 0 W/m 6,3 km/h (2 Bft) 100,00 %
08.05.2016 03:48 15,6 C 15,0 C 12,2 C 61 % 0 lf 1010,2 hPa 0,0 l/m 0 min 0 min 0 W/m 6,3 km/h (2 Bft) 100,00 %
08.05.2016 03:50 15,6 C 14,4 C 12,2 C 61 % 0 lf 1010,2 hPa 0,0 l/m 0 min 0 min 0 W/m 6,3 km/h (2 Bft) 95,65 %
08.05.2016 03:52 15,6 C 14,4 C 12,2 C 62 % 0 lf 1010,2 hPa 0,0 l/m 0 min 0 min 0 W/m 4,2 km/h (1 Bft) 95,74 %
08.05.2016 03:54 15,6 C 14,4 C 12,2 C 62 % 0 lf 1010,2 hPa 0,0 l/m 0 min 0 min 0 W/m 6,3 km/h (2 Bft) 95,74 %
08.05.2016 03:56 15,5 C 14,4 C 12,2 C 62 % 0 lf 1010,2 hPa 0,0 l/m 0 min 0 min 0 W/m 6,3 km/h (2 Bft) 97,87 %
08.05.2016 03:58 15,4 C 14,4 C 11,7 C 62 % 0 lf 1010,2 hPa 0,0 l/m 0 min 0 min 0 W/m 4,2 km/h (1 Bft) 95,74 %
08.05.2016 04:00 15,4 C 14,4 C 11,7 C 62 % 0 lf 1010,2 hPa 0,0 l/m 0 min 0 min 0 W/m 4,2 km/h (1 Bft) 95,65 %
08.05.2016 04:02 15,4 C 13,9 C 11,7 C 62 % 0 lf 1010,2 hPa 0,0 l/m 0 min 0 min 0 W/m 4,2 km/h (1 Bft) 95,83 %
08.05.2016 04:04 15,4 C 13,9 C 11,7 C 62 % 0 lf 1010,2 hPa 0,0 l/m 0 min 0 min 0 W/m 6,3 km/h (2 Bft) 93,62 %
08.05.2016 04:06 15,3 C 13,9 C 11,7 C 62 % 0 lf 1010,2 hPa 0,0 l/m 0 min 0 min 0 W/m 6,3 km/h (2 Bft) 91,49 %
08.05.2016 04:08 15,3 C 13,9 C 11,7 C 62 % 0 lf 1010,1 hPa 0,0 l/m 0 min 0 min 0 W/m 4,2 km/h (1 Bft) 95,74 %
08.05.2016 04:10 15,2 C 13,9 C 11,7 C 62 % 0 lf 1010,1 hPa 0,0 l/m 0 min 0 min 0 W/m 6,3 km/h (2 Bft) 93,62 %
08.05.2016 04:12 15,2 C 13,9 C 11,1 C 63 % 0 lf 1010,2 hPa 0,0 l/m 0 min 0 min 0 W/m 6,3 km/h (2 Bft) 95,65 %
08.05.2016 04:14 15,1 C 13,9 C 11,1 C 63 % 0 lf 1010,2 hPa 0,0 l/m 0 min 0 min 0 W/m 4,2 km/h (1 Bft) 95,74 %
08.05.2016 04:16 15,1 C 13,9 C 11,1 C 63 % 0 lf 1010,2 hPa 0,0 l/m 0 min 0 min 0 W/m 6,3 km/h (2 Bft) 95,74 %
08.05.2016 04:18 15,1 C 13,9 C 11,1 C 63 % 0 lf 1010,1 hPa 0,0 l/m 0 min 0 min 0 W/m 6,3 km/h (2 Bft) 91,49 %
08.05.2016 04:20 15,0 C 13,9 C 11,1 C 63 % 0 lf 1010,2 hPa 0,0 l/m 0 min 0 min 0 W/m 4,2 km/h (1 Bft) 95,74 %
08.05.2016 04:22 14,9 C 13,3 C 11,1 C 63 % 0 lf 1010,2 hPa 0,0 l/m 0 min 0 min 0 W/m 4,2 km/h (1 Bft) 95,74 %
08.05.2016 04:24 14,9 C 13,3 C 11,1 C 64 % 0 lf 1010,2 hPa 0,0 l/m 0 min 0 min 0 W/m 6,3 km/h (2 Bft) 93,48 %
08.05.2016 04:26 14,8 C 13,9 C 11,1 C 64 % 0 lf 1010,2 hPa 0,0 l/m 0 min 0 min 0 W/m 6,3 km/h (2 Bft) 91,49 %
08.05.2016 04:28 14,8 C 13,9 C 11,1 C 64 % 0 lf 1010,2 hPa 0,0 l/m 0 min 0 min 0 W/m 6,3 km/h (2 Bft) 93,62 %
08.05.2016 04:30 14,7 C 13,9 C 11,1 C 64 % 0 lf 1010,2 hPa 0,0 l/m 0 min 0 min 0 W/m 6,3 km/h (2 Bft) 91,49 %
08.05.2016 04:32 14,6 C 13,9 C 11,1 C 64 % 0 lf 1010,2 hPa 0,0 l/m 0 min 0 min 0 W/m 8,4 km/h (2 Bft) 93,62 %
08.05.2016 04:34 14,6 C 13,9 C 11,1 C 64 % 0 lf 1010,2 hPa 0,0 l/m 0 min 0 min 0 W/m 6,3 km/h (2 Bft) 95,74 %
08.05.2016 04:36 14,5 C 13,9 C 11,1 C 65 % 0 lf 1010,2 hPa 0,0 l/m 0 min 0 min 0 W/m 6,3 km/h (2 Bft) 89,13 %
08.05.2016 04:38 14,4 C 13,3 C 11,1 C 65 % 0 lf 1010,2 hPa 0,0 l/m 0 min 0 min 0 W/m 8,4 km/h (2 Bft) 93,62 %
08.05.2016 04:40 14,4 C 13,3 C 11,1 C 65 % 0 lf 1010,2 hPa 0,0 l/m 0 min 0 min 0 W/m 8,4 km/h (2 Bft) 97,87 %
08.05.2016 04:42 14,4 C 13,3 C 11,1 C 65 % 0 lf 1010,2 hPa 0,0 l/m 0 min 0 min 0 W/m 8,4 km/h (2 Bft) 93,62 %
08.05.2016 04:44 14,3 C 13,9 C 11,1 C 65 % 0 lf 1010,2 hPa 0,0 l/m 0 min 0 min 0 W/m 6,3 km/h (2 Bft) 95,74 %
08.05.2016 04:46 14,3 C 13,3 C 11,1 C 65 % 0 lf 1010,2 hPa 0,0 l/m 0 min 0 min 0 W/m 6,3 km/h (2 Bft) 93,62 %
08.05.2016 04:48 14,2 C 13,3 C 11,1 C 65 % 0 lf 1010,2 hPa 0,0 l/m 0 min 0 min 0 W/m 6,3 km/h (2 Bft) 93,48 %
08.05.2016 04:50 14,2 C 13,3 C 10,6 C 65 % 0 lf 1010,2 hPa 0,0 l/m 0 min 0 min 0 W/m 4,2 km/h (1 Bft) 95,74 %
08.05.2016 04:52 14,2 C 13,3 C 10,6 C 65 % 0 lf 1010,2 hPa 0,0 l/m 0 min 0 min 0 W/m 4,2 km/h (1 Bft) 95,74 %
08.05.2016 04:54 14,2 C 13,3 C 10,6 C 65 % 0 lf 1010,2 hPa 0,0 l/m 0 min 0 min 0 W/m 6,3 km/h (2 Bft) 93,62 %
08.05.2016 04:56 14,2 C 13,3 C 10,6 C 66 % 0 lf 1010,2 hPa 0,0 l/m 0 min 0 min 0 W/m 6,3 km/h (2 Bft) 93,62 %
08.05.2016 04:58 14,2 C 13,3 C 10,6 C 66 % 0 lf 1010,2 hPa 0,0 l/m 0 min 0 min 0 W/m 8,4 km/h (2 Bft) 93,62 %
08.05.2016 05:00 14,1 C 13,3 C 10,6 C 66 % 0 lf 1010,2 hPa 0,0 l/m 0 min 0 min 0 W/m 8,4 km/h (2 Bft) 93,48 %
08.05.2016 05:02 14,0 C 12,8 C 10,6 C 66 % 0 lf 1010,3 hPa 0,0 l/m 0 min 0 min 0 W/m 8,4 km/h (2 Bft) 93,62 %
08.05.2016 05:04 14,0 C 12,8 C 10,6 C 66 % 0 lf 1010,3 hPa 0,0 l/m 0 min 0 min 0 W/m 8,4 km/h (2 Bft) 93,62 %
08.05.2016 05:06 13,9 C 12,8 C 10,6 C 66 % 0 lf 1010,2 hPa 0,0 l/m 0 min 0 min 0 W/m 10,5 km/h (2 Bft) 95,74 %
08.05.2016 05:08 13,9 C 13,3 C 10,6 C 66 % 0 lf 1010,2 hPa 0,0 l/m 0 min 0 min 0 W/m 10,5 km/h (2 Bft) 93,62 %
08.05.2016 05:10 13,9 C 13,3 C 10,6 C 67 % 0 lf 1010,2 hPa 0,0 l/m 0 min 0 min 0 W/m 10,5 km/h (2 Bft) 97,87 %
08.05.2016 05:12 13,8 C 13,3 C 11,1 C 67 % 0 lf 1010,2 hPa 0,0 l/m 0 min 0 min 0 W/m 10,5 km/h (2 Bft) 93,48 %
08.05.2016 05:14 13,8 C 13,9 C 11,1 C 67 % 0 lf 1010,2 hPa 0,0 l/m 0 min 0 min 0 W/m 12,6 km/h (3 Bft) 97,87 %
08.05.2016 05:16 13,8 C 13,9 C 11,7 C 67 % 0 lf 1010,2 hPa 0,0 l/m 0 min 0 min 0 W/m 10,5 km/h (2 Bft) 97,87 %
08.05.2016 05:18 13,7 C 14,4 C 11,7 C 67 % 0 lf 1010,2 hPa 0,0 l/m 0 min 0 min 0 W/m 10,5 km/h (2 Bft) 97,87 %
08.05.2016 05:20 13,7 C 14,4 C 11,7 C 67 % 0 lf 1010,2 hPa 0,0 l/m 0 min 0 min 0 W/m 14,6 km/h (3 Bft) 93,62 %
08.05.2016 05:22 13,7 C 14,4 C 11,7 C 67 % 0 lf 1010,2 hPa 0,0 l/m 0 min 0 min 0 W/m 8,4 km/h (2 Bft) 97,87 %
08.05.2016 05:24 13,8 C 14,4 C 11,7 C 67 % 0 lf 1010,2 hPa 0,0 l/m 0 min 0 min 0 W/m 8,4 km/h (2 Bft) 97,83 %
08.05.2016 05:26 13,8 C 14,4 C 11,7 C 67 % 0 lf 1010,2 hPa 0,0 l/m 0 min 0 min 0 W/m 8,4 km/h (2 Bft) 95,74 %
08.05.2016 05:28 13,8 C 14,4 C 11,7 C 67 % 0 lf 1010,2 hPa 0,0 l/m 0 min 0 min 0 W/m 8,4 km/h (2 Bft) 95,74 %
08.05.2016 05:30 13,8 C 14,4 C 12,2 C 67 % 0 lf 1010,2 hPa 0,0 l/m 0 min 0 min 0 W/m 8,4 km/h (2 Bft) 97,87 %
08.05.2016 05:32 13,8 C 14,4 C 11,7 C 67 % 0 lf 1010,2 hPa 0,0 l/m 0 min 0 min 0 W/m 10,5 km/h (2 Bft) 95,74 %
08.05.2016 05:34 13,8 C 13,9 C 11,7 C 67 % 0 lf 1010,2 hPa 0,0 l/m 0 min 0 min 0 W/m 8,4 km/h (2 Bft) 93,48 %
08.05.2016 05:36 13,9 C 13,9 C 12,2 C 67 % 0 lf 1010,2 hPa 0,0 l/m 0 min 0 min 0 W/m 8,4 km/h (2 Bft) 95,74 %
08.05.2016 05:38 13,9 C 13,9 C 11,7 C 67 % 0 lf 1010,2 hPa 0,0 l/m 0 min 0 min 0 W/m 8,4 km/h (2 Bft) 95,74 %
08.05.2016 05:40 13,9 C 14,4 C 12,2 C 67 % 0 lf 1010,2 hPa 0,0 l/m 0 min 0 min 0 W/m 8,4 km/h (2 Bft) 97,87 %
08.05.2016 05:42 13,9 C 13,9 C 11,7 C 67 % 0 lf 1010,2 hPa 0,0 l/m 0 min 0 min 0 W/m 10,5 km/h (2 Bft) 97,87 %
08.05.2016 05:44 13,9 C 13,9 C 11,7 C 67 % 0 lf 1010,2 hPa 0,0 l/m 0 min 0 min 0 W/m 8,4 km/h (2 Bft) 97,87 %
08.05.2016 05:46 13,9 C 13,9 C 11,7 C 67 % 0 lf 1010,2 hPa 0,0 l/m 0 min 0 min 0 W/m 8,4 km/h (2 Bft) 97,83 %
08.05.2016 05:48 13,9 C 13,9 C 11,7 C 67 % 0 lf 1010,2 hPa 0,0 l/m 0 min 0 min 4 W/m 6,3 km/h (2 Bft) 93,62 %
08.05.2016 05:50 13,9 C 13,9 C 11,7 C 67 % 0 lf 1010,2 hPa 0,0 l/m 0 min 0 min 5 W/m 6,3 km/h (2 Bft) 97,87 %
08.05.2016 05:52 13,9 C 13,9 C 11,7 C 67 % 0 lf 1010,2 hPa 0,0 l/m 0 min 0 min 5 W/m 6,3 km/h (2 Bft) 97,87 %
08.05.2016 05:54 13,9 C 13,3 C 11,7 C 66 % 0 lf 1010,3 hPa 0,0 l/m 0 min 0 min 7 W/m 4,2 km/h (1 Bft) 97,87 %
08.05.2016 05:56 13,9 C 13,3 C 11,1 C 67 % 0 lf 1010,3 hPa 0,0 l/m 0 min 0 min 7 W/m 6,3 km/h (2 Bft) 95,74 %
08.05.2016 05:58 13,9 C 13,3 C 11,1 C 67 % 0 lf 1010,2 hPa 0,0 l/m 0 min 0 min 9 W/m 6,3 km/h (2 Bft) 97,83 %
08.05.2016 06:00 13,9 C 13,3 C 11,1 C 66 % 0 lf 1010,3 hPa 0,0 l/m 0 min 0 min 10 W/m 6,3 km/h (2 Bft) 93,62 %
08.05.2016 06:02 13,9 C 13,3 C 11,1 C 66 % 0 lf 1010,3 hPa 0,0 l/m 0 min 0 min 11 W/m 6,3 km/h (2 Bft) 97,87 %
08.05.2016 06:04 13,9 C 13,3 C 11,1 C 66 % 0 lf 1010,3 hPa 0,0 l/m 0 min 0 min 12 W/m 6,3 km/h (2 Bft) 97,92 %
08.05.2016 06:06 13,9 C 12,8 C 10,6 C 66 % 0 lf 1010,3 hPa 0,0 l/m 0 min 0 min 13 W/m 6,3 km/h (2 Bft) 95,74 %
08.05.2016 06:08 13,8 C 12,8 C 10,6 C 66 % 0 lf 1010,4 hPa 0,0 l/m 0 min 0 min 14 W/m 6,3 km/h (2 Bft) 97,87 %
08.05.2016 06:10 13,8 C 12,8 C 10,6 C 66 % 0 lf 1010,3 hPa 0,0 l/m 0 min 0 min 16 W/m 6,3 km/h (2 Bft) 97,83 %
08.05.2016 06:12 13,8 C 12,8 C 10,6 C 66 % 0 lf 1010,3 hPa 0,0 l/m 0 min 0 min 18 W/m 4,2 km/h (1 Bft) 100,00 %
08.05.2016 06:14 13,8 C 12,8 C 10,6 C 67 % 0 lf 1010,4 hPa 0,0 l/m 0 min 0 min 18 W/m 4,2 km/h (1 Bft) 97,87 %
08.05.2016 06:16 13,8 C 12,8 C 10,6 C 67 % 0 lf 1010,4 hPa 0,0 l/m 2 min 0 min 20 W/m 6,3 km/h (2 Bft) 97,87 %
08.05.2016 06:18 13,7 C 12,8 C 10,6 C 67 % 0 lf 1010,4 hPa 0,0 l/m 2 min 0 min 23 W/m 4,2 km/h (1 Bft) 97,87 %
08.05.2016 06:20 13,7 C 12,8 C 10,6 C 67 % 0 lf 1010,4 hPa 0,0 l/m 2 min 0 min 25 W/m 6,3 km/h (2 Bft) 95,74 %
08.05.2016 06:22 13,7 C 12,8 C 10,6 C 67 % 0 lf 1010,4 hPa 0,0 l/m 0 min 0 min 26 W/m 6,3 km/h (2 Bft) 100,00 %
08.05.2016 06:24 13,6 C 12,8 C 10,6 C 67 % 0 lf 1010,4 hPa 0,0 l/m 2 min 0 min 30 W/m 6,3 km/h (2 Bft) 100,00 %
08.05.2016 06:26 13,6 C 12,8 C 10,6 C 67 % 0 lf 1010,5 hPa 0,0 l/m 2 min 0 min 32 W/m 4,2 km/h (1 Bft) 100,00 %
08.05.2016 06:28 13,6 C 12,8 C 10,6 C 68 % 0 lf 1010,5 hPa 0,0 l/m 2 min 0 min 35 W/m 4,2 km/h (1 Bft) 97,87 %
08.05.2016 06:30 13,5 C 13,3 C 10,6 C 68 % 0 lf 1010,5 hPa 0,0 l/m 2 min 0 min 39 W/m 4,2 km/h (1 Bft) 100,00 %
08.05.2016 06:32 13,5 C 13,3 C 10,6 C 68 % 0 lf 1010,5 hPa 0,0 l/m 2 min 0 min 41 W/m 4,2 km/h (1 Bft) 97,87 %
08.05.2016 06:34 13,4 C 13,3 C 10,6 C 68 % 0 lf 1010,5 hPa 0,0 l/m 2 min 0 min 43 W/m 4,2 km/h (1 Bft) 97,83 %
08.05.2016 06:36 13,4 C 13,3 C 10,6 C 68 % 0 lf 1010,5 hPa 0,0 l/m 2 min 0 min 48 W/m 4,2 km/h (1 Bft) 97,87 %
08.05.2016 06:38 13,4 C 13,3 C 10,6 C 68 % 0 lf 1010,5 hPa 0,0 l/m 2 min 0 min 52 W/m 6,3 km/h (2 Bft) 100,00 %
08.05.2016 06:40 13,4 C 13,3 C 10,6 C 69 % 0 lf 1010,5 hPa 0,0 l/m 2 min 0 min 56 W/m 6,3 km/h (2 Bft) 97,87 %
08.05.2016 06:42 13,3 C 13,3 C 10,6 C 69 % 0 lf 1010,5 hPa 0,0 l/m 2 min 0 min 62 W/m 6,3 km/h (2 Bft) 93,62 %
08.05.2016 06:44 13,3 C 13,3 C 10,6 C 69 % 0 lf 1010,5 hPa 0,0 l/m 2 min 0 min 66 W/m 8,4 km/h (2 Bft) 95,74 %
08.05.2016 06:46 13,3 C 13,3 C 10,6 C 69 % 0 lf 1010,5 hPa 0,0 l/m 2 min 0 min 70 W/m 6,3 km/h (2 Bft) 95,65 %
08.05.2016 06:48 13,3 C 13,3 C 10,6 C 69 % 0 lf 1010,6 hPa 0,0 l/m 2 min 0 min 74 W/m 4,2 km/h (1 Bft) 97,87 %
08.05.2016 06:50 13,3 C 13,3 C 10,6 C 69 % 0 lf 1010,7 hPa 0,0 l/m 2 min 0 min 80 W/m 6,3 km/h (2 Bft) 93,62 %
08.05.2016 06:52 13,2 C 13,3 C 11,1 C 70 % 0 lf 1010,7 hPa 0,0 l/m 2 min 0 min 84 W/m 8,4 km/h (2 Bft) 95,74 %
08.05.2016 06:54 13,2 C 13,9 C 11,1 C 70 % 0 lf 1010,7 hPa 0,0 l/m 2 min 0 min 90 W/m 6,3 km/h (2 Bft) 95,74 %
08.05.2016 06:56 13,2 C 13,9 C 11,1 C 70 % 0 lf 1010,7 hPa 0,0 l/m 2 min 0 min 95 W/m 6,3 km/h (2 Bft) 95,65 %
08.05.2016 06:58 13,2 C 13,9 C 11,1 C 70 % 0 lf 1010,7 hPa 0,0 l/m 2 min 0 min 100 W/m 6,3 km/h (2 Bft) 93,62 %
08.05.2016 07:00 13,2 C 13,9 C 11,1 C 70 % 0 lf 1010,7 hPa 0,0 l/m 2 min 0 min 105 W/m 6,3 km/h (2 Bft) 91,49 %
08.05.2016 07:02 13,2 C 13,9 C 11,1 C 70 % 0 lf 1010,7 hPa 0,0 l/m 2 min 0 min 111 W/m 6,3 km/h (2 Bft) 97,87 %
08.05.2016 07:04 13,2 C 13,9 C 11,1 C 70 % 0 lf 1010,7 hPa 0,0 l/m 2 min 0 min 116 W/m 6,3 km/h (2 Bft) 95,74 %
08.05.2016 07:06 13,2 C 13,9 C 11,1 C 70 % 0 lf 1010,7 hPa 0,0 l/m 2 min 0 min 122 W/m 6,3 km/h (2 Bft) 95,74 %
08.05.2016 07:08 13,2 C 13,9 C 11,1 C 71 % 0 lf 1010,7 hPa 0,0 l/m 2 min 0 min 126 W/m 4,2 km/h (1 Bft) 95,65 %
08.05.2016 07:10 13,2 C 14,4 C 11,1 C 71 % 0 lf 1010,7 hPa 0,0 l/m 2 min 0 min 133 W/m 2,1 km/h (1 Bft) 93,62 %
08.05.2016 07:12 13,2 C 14,4 C 11,1 C 71 % 0 lf 1010,8 hPa 0,0 l/m 2 min 0 min 140 W/m 4,2 km/h (1 Bft) 95,74 %
08.05.2016 07:14 13,3 C 14,4 C 11,1 C 71 % 0 lf 1010,8 hPa 0,0 l/m 2 min 0 min 146 W/m 4,2 km/h (1 Bft) 97,87 %
08.05.2016 07:16 13,3 C 14,4 C 11,1 C 71 % 0 lf 1010,8 hPa 0,0 l/m 2 min 0 min 152 W/m 6,3 km/h (2 Bft) 95,74 %
08.05.2016 07:18 13,3 C 14,4 C 11,1 C 71 % 0 lf 1010,8 hPa 0,0 l/m 2 min 0 min 158 W/m 8,4 km/h (2 Bft) 95,74 %
08.05.2016 07:20 13,3 C 14,4 C 11,1 C 71 % 0 lf 1010,8 hPa 0,0 l/m 2 min 0 min 163 W/m 8,4 km/h (2 Bft) 97,83 %
08.05.2016 07:22 13,3 C 14,4 C 11,1 C 72 % 0 lf 1010,8 hPa 0,0 l/m 2 min 0 min 170 W/m 6,3 km/h (2 Bft) 97,87 %
08.05.2016 07:24 13,3 C 14,4 C 11,7 C 72 % 0 lf 1010,8 hPa 0,0 l/m 2 min 0 min 177 W/m 6,3 km/h (2 Bft) 93,62 %
08.05.2016 07:26 13,3 C 14,4 C 11,7 C 72 % 0 lf 1010,9 hPa 0,0 l/m 2 min 0 min 182 W/m 4,2 km/h (1 Bft) 97,87 %
08.05.2016 07:28 13,4 C 15,0 C 11,7 C 71 % 0 lf 1010,9 hPa 0,0 l/m 2 min 0 min 188 W/m 6,3 km/h (2 Bft) 97,87 %
08.05.2016 07:30 13,4 C 15,0 C 11,7 C 72 % 0 lf 1010,9 hPa 0,0 l/m 2 min 0 min 194 W/m 8,4 km/h (2 Bft) 97,87 %
08.05.2016 07:32 13,4 C 15,0 C 11,7 C 72 % 0 lf 1010,9 hPa 0,0 l/m 2 min 0 min 201 W/m 8,4 km/h (2 Bft) 97,83 %
08.05.2016 07:34 13,4 C 15,0 C 11,7 C 72 % 0 lf 1010,8 hPa 0,0 l/m 2 min 0 min 207 W/m 6,3 km/h (2 Bft) 100,00 %
08.05.2016 07:36 13,5 C 15,0 C 11,7 C 72 % 0 lf 1010,9 hPa 0,0 l/m 2 min 0 min 212 W/m 8,4 km/h (2 Bft) 97,87 %
08.05.2016 07:38 13,6 C 15,6 C 12,2 C 72 % 0 lf 1010,9 hPa 0,0 l/m 2 min 0 min 219 W/m 8,4 km/h (2 Bft) 97,87 %
08.05.2016 07:40 13,6 C 15,6 C 12,2 C 71 % 0 lf 1011,0 hPa 0,0 l/m 2 min 0 min 223 W/m 10,5 km/h (2 Bft) 97,87 %
08.05.2016 07:42 13,7 C 15,6 C 12,2 C 71 % 0 lf 1010,9 hPa 0,0 l/m 2 min 0 min 228 W/m 12,6 km/h (3 Bft) 100,00 %
08.05.2016 07:44 13,7 C 15,6 C 12,8 C 71 % 0 lf 1011,0 hPa 0,0 l/m 2 min 0 min 234 W/m 10,5 km/h (2 Bft) 100,00 %
08.05.2016 07:46 13,8 C 15,6 C 12,8 C 71 % 0 lf 1010,9 hPa 0,0 l/m 2 min 0 min 240 W/m 8,4 km/h (2 Bft) 95,74 %
08.05.2016 07:48 13,8 C 15,6 C 12,8 C 71 % 0 lf 1011,0 hPa 0,0 l/m 2 min 0 min 248 W/m 8,4 km/h (2 Bft) 100,00 %
08.05.2016 07:50 13,9 C 15,6 C 12,8 C 71 % 0 lf 1011,0 hPa 0,0 l/m 2 min 0 min 253 W/m 10,5 km/h (2 Bft) 93,62 %
08.05.2016 07:52 14,0 C 16,1 C 13,3 C 70 % 0 lf 1010,9 hPa 0,0 l/m 2 min 0 min 259 W/m 10,5 km/h (2 Bft) 95,74 %
08.05.2016 07:54 14,1 C 16,1 C 13,3 C 70 % 0 lf 1011,0 hPa 0,0 l/m 2 min 0 min 265 W/m 12,6 km/h (3 Bft) 97,83 %
08.05.2016 07:56 14,2 C 16,1 C 13,9 C 70 % 0 lf 1011,1 hPa 0,0 l/m 2 min 0 min 272 W/m 14,6 km/h (3 Bft) 97,87 %
08.05.2016 07:58 14,2 C 16,1 C 13,9 C 69 % 0 lf 1011,0 hPa 0,0 l/m 2 min 0 min 278 W/m 10,5 km/h (2 Bft) 95,74 %
08.05.2016 08:00 14,3 C 16,1 C 13,9 C 69 % 0 lf 1011,1 hPa 0,0 l/m 2 min 0 min 283 W/m 14,6 km/h (3 Bft) 93,62 %
08.05.2016 08:02 14,4 C 16,7 C 13,9 C 69 % 0 lf 1011,1 hPa 0,0 l/m 2 min 0 min 290 W/m 16,7 km/h (3 Bft) 97,87 %
08.05.2016 08:04 14,5 C 16,7 C 13,9 C 69 % 0 lf 1011,1 hPa 0,0 l/m 2 min 0 min 296 W/m 14,6 km/h (3 Bft) 95,74 %
08.05.2016 08:06 14,6 C 16,7 C 13,9 C 68 % 0 lf 1011,1 hPa 0,0 l/m 2 min 0 min 304 W/m 18,8 km/h (3 Bft) 95,65 %
08.05.2016 08:08 14,8 C 16,7 C 14,4 C 68 % 0 lf 1011,1 hPa 0,0 l/m 2 min 0 min 309 W/m 16,7 km/h (3 Bft) 93,62 %
08.05.2016 08:10 14,9 C 16,7 C 14,4 C 68 % 0 lf 1011,1 hPa 0,0 l/m 2 min 0 min 316 W/m 16,7 km/h (3 Bft) 97,87 %
08.05.2016 08:12 15,0 C 16,7 C 14,4 C 67 % 0 lf 1011,1 hPa 0,0 l/m 2 min 0 min 322 W/m 14,6 km/h (3 Bft) 95,74 %
08.05.2016 08:14 15,1 C 16,7 C 14,4 C 67 % 0 lf 1011,1 hPa 0,0 l/m 2 min 0 min 328 W/m 16,7 km/h (3 Bft) 95,74 %
08.05.2016 08:16 15,2 C 17,2 C 14,4 C 67 % 0 lf 1011,1 hPa 0,0 l/m 2 min 0 min 334 W/m 18,8 km/h (3 Bft) 95,74 %
08.05.2016 08:18 15,3 C 17,2 C 15,0 C 66 % 0 lf 1011,1 hPa 0,0 l/m 2 min 0 min 341 W/m 16,7 km/h (3 Bft) 95,65 %
08.05.2016 08:20 15,4 C 17,2 C 15,0 C 66 % 0 lf 1011,1 hPa 0,0 l/m 2 min 0 min 347 W/m 18,8 km/h (3 Bft) 93,62 %
08.05.2016 08:22 15,6 C 17,2 C 15,0 C 65 % 0 lf 1011,1 hPa 0,0 l/m 2 min 0 min 352 W/m 14,6 km/h (3 Bft) 93,62 %
08.05.2016 08:24 15,7 C 17,2 C 15,0 C 66 % 0 lf 1011,1 hPa 0,0 l/m 2 min 0 min 359 W/m 16,7 km/h (3 Bft) 89,36 %
08.05.2016 08:26 15,8 C 17,2 C 15,0 C 64 % 0 lf 1011,2 hPa 0,0 l/m 2 min 0 min 364 W/m 25,1 km/h (4 Bft) 89,36 %
08.05.2016 08:28 15,9 C 17,8 C 15,0 C 64 % 0 lf 1011,2 hPa 0,0 l/m 2 min 0 min 370 W/m 18,8 km/h (3 Bft) 93,62 %
08.05.2016 08:30 16,1 C 19,4 C 15,6 C 64 % 0 lf 1011,1 hPa 0,0 l/m 2 min 0 min 376 W/m 18,8 km/h (3 Bft) 93,48 %
08.05.2016 08:32 16,2 C 20,6 C 15,6 C 64 % 0 lf 1011,1 hPa 0,0 l/m 2 min 0 min 380 W/m 18,8 km/h (3 Bft) 89,36 %
08.05.2016 08:34 16,3 C 21,7 C 15,6 C 63 % 0 lf 1011,1 hPa 0,0 l/m 2 min 0 min 388 W/m 16,7 km/h (3 Bft) 93,62 %
08.05.2016 08:36 16,5 C 22,2 C 15,6 C 63 % 0 lf 1011,2 hPa 0,0 l/m 2 min 0 min 393 W/m 20,9 km/h (4 Bft) 93,62 %
08.05.2016 08:38 16,6 C 22,2 C 15,6 C 63 % 0 lf 1011,3 hPa 0,0 l/m 2 min 0 min 402 W/m 23,0 km/h (4 Bft) 95,74 %
08.05.2016 08:40 16,8 C 21,7 C 15,6 C 63 % 0 lf 1011,2 hPa 0,0 l/m 2 min 0 min 408 W/m 14,6 km/h (3 Bft) 95,74 %
08.05.2016 08:42 16,9 C 20,6 C 15,6 C 63 % 0 lf 1011,3 hPa 0,0 l/m 2 min 0 min 411 W/m 12,6 km/h (3 Bft) 86,96 %
08.05.2016 08:44 17,1 C 19,4 C 15,6 C 62 % 0 lf 1011,2 hPa 0,0 l/m 2 min 0 min 418 W/m 14,6 km/h (3 Bft) 95,74 %
08.05.2016 08:46 17,2 C 19,4 C 16,1 C 62 % 0 lf 1011,2 hPa 0,0 l/m 2 min 0 min 424 W/m 18,8 km/h (3 Bft) 89,36 %
08.05.2016 08:48 17,3 C 19,4 C 16,1 C 62 % 0 lf 1011,3 hPa 0,0 l/m 2 min 0 min 430 W/m 18,8 km/h (3 Bft) 93,62 %
08.05.2016 08:50 17,4 C 19,4 C 16,1 C 62 % 0 lf 1011,2 hPa 0,0 l/m 2 min 0 min 435 W/m 20,9 km/h (4 Bft) 93,62 %
08.05.2016 08:52 17,6 C 20,0 C 16,1 C 61 % 0 lf 1011,3 hPa 0,0 l/m 2 min 0 min 440 W/m 12,6 km/h (3 Bft) 93,62 %
08.05.2016 08:54 17,6 C 21,1 C 16,1 C 61 % 0 lf 1011,3 hPa 0,0 l/m 2 min 0 min 447 W/m 23,0 km/h (4 Bft) 93,48 %
08.05.2016 08:56 17,7 C 22,2 C 16,1 C 61 % 0 lf 1011,3 hPa 0,0 l/m 2 min 0 min 453 W/m 18,8 km/h (3 Bft) 95,74 %
08.05.2016 08:58 17,8 C 21,7 C 16,7 C 60 % 0 lf 1011,3 hPa 0,0 l/m 2 min 0 min 458 W/m 20,9 km/h (4 Bft) 93,62 %
08.05.2016 09:00 17,9 C 22,2 C 16,1 C 60 % 0 lf 1011,3 hPa 0,0 l/m 2 min 0 min 464 W/m 20,9 km/h (4 Bft) 93,62 %
08.05.2016 09:02 18,0 C 23,3 C 16,7 C 60 % 0 lf 1011,3 hPa 0,0 l/m 2 min 0 min 470 W/m 14,6 km/h (3 Bft) 91,49 %
08.05.2016 09:04 18,1 C 24,4 C 16,7 C 60 % 0 lf 1011,3 hPa 0,0 l/m 2 min 0 min 475 W/m 16,7 km/h (3 Bft) 95,74 %
08.05.2016 09:06 18,2 C 24,4 C 16,7 C 60 % 0 lf 1011,3 hPa 0,0 l/m 2 min 0 min 480 W/m 18,8 km/h (3 Bft) 93,48 %
08.05.2016 09:08 18,4 C 24,4 C 16,7 C 59 % 0 lf 1011,3 hPa 0,0 l/m 2 min 0 min 485 W/m 18,8 km/h (3 Bft) 93,62 %
08.05.2016 09:10 18,5 C 24,4 C 16,7 C 59 % 0 lf 1011,3 hPa 0,0 l/m 2 min 0 min 491 W/m 14,6 km/h (3 Bft) 95,74 %
08.05.2016 09:12 18,7 C 24,4 C 17,2 C 58 % 0 lf 1011,3 hPa 0,0 l/m 2 min 0 min 497 W/m 18,8 km/h (3 Bft) 95,74 %
08.05.2016 09:14 18,9 C 24,4 C 17,2 C 58 % 0 lf 1011,3 hPa 0,0 l/m 2 min 0 min 503 W/m 27,2 km/h (4 Bft) 93,62 %
08.05.2016 09:16 19,0 C 25,6 C 17,2 C 57 % 0 lf 1011,3 hPa 0,0 l/m 2 min 0 min 508 W/m 20,9 km/h (4 Bft) 91,49 %
08.05.2016 09:18 19,1 C 25,6 C 17,2 C 57 % 0 lf 1011,3 hPa 0,0 l/m 2 min 0 min 513 W/m 27,2 km/h (4 Bft) 97,83 %
08.05.2016 09:20 19,3 C 25,0 C 17,2 C 57 % 0 lf 1011,3 hPa 0,0 l/m 2 min 0 min 519 W/m 16,7 km/h (3 Bft) 97,87 %
08.05.2016 09:22 19,4 C 25,0 C 17,2 C 57 % 0 lf 1011,3 hPa 0,0 l/m 2 min 0 min 524 W/m 27,2 km/h (4 Bft) 100,00 %
08.05.2016 09:24 19,5 C 25,0 C 17,8 C 55 % 0 lf 1011,3 hPa 0,0 l/m 2 min 0 min 530 W/m 27,2 km/h (4 Bft) 100,00 %
08.05.2016 09:26 19,7 C 25,0 C 17,8 C 55 % 0 lf 1011,3 hPa 0,0 l/m 2 min 0 min 535 W/m 27,2 km/h (4 Bft) 100,00 %
08.05.2016 09:28 19,8 C 25,0 C 17,8 C 55 % 0 lf 1011,4 hPa 0,0 l/m 2 min 0 min 540 W/m 23,0 km/h (4 Bft) 97,83 %
08.05.2016 09:30 19,9 C 25,6 C 18,3 C 55 % 0 lf 1011,3 hPa 0,0 l/m 2 min 0 min 547 W/m 23,0 km/h (4 Bft) 97,87 %
08.05.2016 09:32 20,0 C 26,1 C 18,3 C 55 % 0 lf 1011,3 hPa 0,0 l/m 2 min 0 min 551 W/m 20,9 km/h (4 Bft) 95,74 %
08.05.2016 09:34 20,2 C 26,1 C 18,3 C 54 % 0 lf 1011,4 hPa 0,0 l/m 2 min 0 min 555 W/m 25,1 km/h (4 Bft) 93,62 %
08.05.2016 09:36 20,3 C 26,1 C 18,9 C 54 % 0 lf 1011,4 hPa 0,0 l/m 2 min 0 min 560 W/m 20,9 km/h (4 Bft) 95,74 %
08.05.2016 09:38 20,4 C 25,6 C 18,9 C 53 % 0 lf 1011,4 hPa 0,0 l/m 2 min 0 min 566 W/m 31,4 km/h (5 Bft) 97,87 %
08.05.2016 09:40 20,5 C 25,0 C 19,4 C 52 % 0 lf 1011,5 hPa 0,0 l/m 2 min 0 min 570 W/m 31,4 km/h (5 Bft) 97,83 %
08.05.2016 09:42 20,6 C 26,1 C 20,0 C 53 % 0 lf 1011,4 hPa 0,0 l/m 2 min 0 min 576 W/m 23,0 km/h (4 Bft) 95,74 %
08.05.2016 09:44 20,7 C 25,6 C 21,1 C 52 % 0 lf 1011,4 hPa 0,0 l/m 2 min 0 min 582 W/m 23,0 km/h (4 Bft) 97,87 %
08.05.2016 09:46 20,8 C 25,6 C 21,7 C 51 % 0 lf 1011,5 hPa 0,0 l/m 2 min 0 min 586 W/m 33,5 km/h (5 Bft) 97,87 %
08.05.2016 09:48 20,9 C 26,1 C 21,1 C 51 % 0 lf 1011,5 hPa 0,0 l/m 2 min 0 min 592 W/m 37,7 km/h (5 Bft) 97,87 %
08.05.2016 09:50 20,9 C 25,0 C 21,7 C 50 % 0 lf 1011,5 hPa 0,0 l/m 2 min 0 min 596 W/m 31,4 km/h (5 Bft) 91,49 %
08.05.2016 09:52 21,0 C 25,6 C 22,8 C 51 % 0 lf 1011,5 hPa 0,0 l/m 2 min 0 min 601 W/m 27,2 km/h (4 Bft) 97,83 %
08.05.2016 09:54 21,0 C 25,0 C 22,8 C 51 % 0 lf 1011,5 hPa 0,0 l/m 2 min 0 min 606 W/m 33,5 km/h (5 Bft) 95,74 %
08.05.2016 09:56 21,1 C 26,1 C 24,4 C 51 % 0 lf 1011,4 hPa 0,0 l/m 2 min 0 min 611 W/m 27,2 km/h (4 Bft) 95,74 %
08.05.2016 09:58 21,2 C 26,1 C 24,4 C 51 % 0 lf 1011,4 hPa 0,0 l/m 2 min 0 min 616 W/m 27,2 km/h (4 Bft) 97,87 %
08.05.2016 10:00 21,3 C 26,7 C 23,9 C 50 % 0 lf 1011,4 hPa 0,0 l/m 2 min 0 min 621 W/m 33,5 km/h (5 Bft) 95,74 %
08.05.2016 10:02 21,3 C 27,2 C 24,4 C 50 % 0 lf 1011,4 hPa 0,0 l/m 2 min 0 min 625 W/m 25,1 km/h (4 Bft) 97,87 %
08.05.2016 10:04 21,4 C 26,1 C 25,6 C 50 % 0 lf 1011,3 hPa 0,0 l/m 2 min 0 min 631 W/m 27,2 km/h (4 Bft) 97,83 %
08.05.2016 10:06 21,5 C 25,6 C 25,6 C 50 % 0 lf 1011,4 hPa 0,0 l/m 2 min 0 min 635 W/m 27,2 km/h (4 Bft) 95,74 %
08.05.2016 10:08 21,6 C 26,1 C 26,1 C 50 % 0 lf 1011,3 hPa 0,0 l/m 2 min 0 min 641 W/m 23,0 km/h (4 Bft) 95,74 %
08.05.2016 10:10 21,7 C 26,7 C 26,7 C 49 % 0 lf 1011,3 hPa 0,0 l/m 2 min 0 min 645 W/m 23,0 km/h (4 Bft) 97,87 %
08.05.2016 10:12 21,7 C 26,7 C 27,2 C 50 % 0 lf 1011,3 hPa 0,0 l/m 2 min 0 min 650 W/m 29,3 km/h (5 Bft) 95,74 %
08.05.2016 10:14 21,8 C 27,2 C 27,2 C 50 % 0 lf 1011,3 hPa 0,0 l/m 2 min 0 min 655 W/m 33,5 km/h (5 Bft) 97,87 %
08.05.2016 10:16 21,9 C 27,2 C 27,2 C 50 % 0 lf 1011,2 hPa 0,0 l/m 2 min 0 min 659 W/m 31,4 km/h (5 Bft) 100,00 %
08.05.2016 10:18 22,1 C 28,3 C 27,2 C 50 % 0 lf 1011,3 hPa 0,0 l/m 2 min 0 min 664 W/m 20,9 km/h (4 Bft) 97,87 %
08.05.2016 10:20 22,2 C 28,9 C 26,7 C 49 % 0 lf 1011,3 hPa 0,0 l/m 2 min 0 min 668 W/m 27,2 km/h (4 Bft) 97,87 %
08.05.2016 10:22 22,3 C 28,3 C 27,2 C 50 % 0 lf 1011,4 hPa 0,0 l/m 2 min 0 min 673 W/m 31,4 km/h (5 Bft) 100,00 %
08.05.2016 10:24 22,4 C 28,9 C 27,8 C 49 % 0 lf 1011,2 hPa 0,0 l/m 2 min 0 min 678 W/m 31,4 km/h (5 Bft) 95,74 %
08.05.2016 10:26 22,5 C 27,2 C 27,2 C 48 % 0 lf 1011,3 hPa 0,0 l/m 2 min 0 min 680 W/m 27,2 km/h (4 Bft) 100,00 %
08.05.2016 10:28 22,6 C 27,2 C 27,8 C 48 % 0 lf 1011,3 hPa 0,0 l/m 2 min 0 min 684 W/m 25,1 km/h (4 Bft) 100,00 %
08.05.2016 10:30 22,6 C 28,3 C 28,3 C 48 % 0 lf 1011,4 hPa 0,0 l/m 2 min 0 min 689 W/m 29,3 km/h (5 Bft) 95,74 %
08.05.2016 10:32 22,7 C 27,2 C 28,3 C 48 % 0 lf 1011,4 hPa 0,0 l/m 2 min 0 min 694 W/m 33,5 km/h (5 Bft) 100,00 %
08.05.2016 10:34 22,8 C 27,8 C 28,3 C 48 % 0 lf 1011,3 hPa 0,0 l/m 2 min 0 min 697 W/m 31,4 km/h (5 Bft) 100,00 %
08.05.2016 10:36 22,8 C 29,4 C 27,8 C 49 % 0 lf 1011,4 hPa 0,0 l/m 2 min 0 min 703 W/m 23,0 km/h (4 Bft) 95,74 %
08.05.2016 10:38 22,9 C 29,4 C 28,3 C 49 % 0 lf 1011,4 hPa 0,0 l/m 2 min 0 min 707 W/m 23,0 km/h (4 Bft) 97,87 %
08.05.2016 10:40 23,1 C 28,3 C 28,3 C 48 % 0 lf 1011,4 hPa 0,0 l/m 2 min 0 min 710 W/m 33,5 km/h (5 Bft) 100,00 %
08.05.2016 10:42 23,1 C 28,3 C 28,3 C 47 % 0 lf 1011,3 hPa 0,0 l/m 2 min 0 min 715 W/m 27,2 km/h (4 Bft) 100,00 %
08.05.2016 10:44 23,2 C 28,3 C 28,3 C 46 % 0 lf 1011,3 hPa 0,0 l/m 2 min 0 min 719 W/m 29,3 km/h (5 Bft) 97,87 %
08.05.2016 10:46 23,2 C 27,8 C 27,8 C 46 % 0 lf 1011,4 hPa 0,0 l/m 2 min 0 min 723 W/m 35,6 km/h (5 Bft) 100,00 %
08.05.2016 10:48 23,3 C 27,8 C 28,3 C 46 % 0 lf 1011,3 hPa 0,0 l/m 2 min 0 min 727 W/m 29,3 km/h (5 Bft) 97,87 %
08.05.2016 10:50 23,3 C 27,2 C 28,3 C 47 % 0 lf 1011,3 hPa 0,0 l/m 2 min 0 min 730 W/m 25,1 km/h (4 Bft) 100,00 %
08.05.2016 10:52 23,3 C 27,2 C 27,8 C 47 % 0 lf 1011,3 hPa 0,0 l/m 2 min 0 min 734 W/m 31,4 km/h (5 Bft) 100,00 %
08.05.2016 10:54 23,3 C 28,3 C 27,8 C 46 % 0 lf 1011,3 hPa 0,0 l/m 2 min 0 min 740 W/m 27,2 km/h (4 Bft) 100,00 %
08.05.2016 10:56 23,4 C 28,9 C 28,3 C 47 % 0 lf 1011,4 hPa 0,0 l/m 2 min 0 min 743 W/m 27,2 km/h (4 Bft) 97,87 %
08.05.2016 10:58 23,4 C 28,9 C 28,9 C 47 % 0 lf 1011,3 hPa 0,0 l/m 2 min 0 min 745 W/m 27,2 km/h (4 Bft) 97,87 %
08.05.2016 11:00 23,6 C 28,3 C 28,9 C 47 % 0 lf 1011,3 hPa 0,0 l/m 2 min 0 min 751 W/m 20,9 km/h (4 Bft) 95,74 %
08.05.2016 11:02 23,6 C 27,2 C 28,3 C 46 % 0 lf 1011,2 hPa 0,0 l/m 2 min 0 min 753 W/m 35,6 km/h (5 Bft) 97,83 %
08.05.2016 11:04 23,7 C 28,3 C 28,9 C 47 % 0 lf 1011,2 hPa 0,0 l/m 2 min 0 min 758 W/m 25,1 km/h (4 Bft) 97,87 %
08.05.2016 11:06 23,7 C 28,3 C 28,3 C 47 % 0 lf 1011,2 hPa 0,0 l/m 2 min 0 min 761 W/m 23,0 km/h (4 Bft) 95,74 %
08.05.2016 11:08 23,8 C 28,9 C 28,3 C 47 % 0 lf 1011,2 hPa 0,0 l/m 2 min 0 min 763 W/m 33,5 km/h (5 Bft) 97,87 %
08.05.2016 11:10 23,9 C 30,0 C 28,3 C 47 % 0 lf 1011,2 hPa 0,0 l/m 2 min 0 min 768 W/m 29,3 km/h (5 Bft) 97,87 %
08.05.2016 11:12 23,9 C 29,4 C 28,3 C 46 % 0 lf 1011,2 hPa 0,0 l/m 2 min 0 min 772 W/m 29,3 km/h (5 Bft) 93,62 %
08.05.2016 11:14 24,0 C 28,9 C 28,3 C 45 % 0 lf 1011,2 hPa 0,0 l/m 2 min 0 min 776 W/m 29,3 km/h (5 Bft) 93,48 %
08.05.2016 11:16 24,1 C 28,3 C 27,8 C 44 % 0 lf 1011,1 hPa 0,0 l/m 2 min 0 min 778 W/m 23,0 km/h (4 Bft) 95,74 %
08.05.2016 11:18 24,2 C 29,4 C 27,8 C 46 % 0 lf 1011,1 hPa 0,0 l/m 2 min 0 min 782 W/m 25,1 km/h (4 Bft) 91,49 %
08.05.2016 11:20 24,2 C 31,1 C 27,8 C 47 % 0 lf 1011,1 hPa 0,0 l/m 2 min 0 min 786 W/m 18,8 km/h (3 Bft) 93,62 %
08.05.2016 11:22 24,3 C 30,6 C 26,7 C 45 % 0 lf 1011,1 hPa 0,0 l/m 2 min 0 min 790 W/m 31,4 km/h (5 Bft) 93,62 %
08.05.2016 11:24 24,4 C 29,4 C 26,1 C 44 % 0 lf 1011,0 hPa 0,0 l/m 2 min 0 min 793 W/m 37,7 km/h (5 Bft) 95,74 %
08.05.2016 11:26 24,5 C 30,0 C 26,1 C 45 % 0 lf 1011,1 hPa 0,0 l/m 2 min 0 min 796 W/m 39,7 km/h (6 Bft) 93,48 %
08.05.2016 11:28 24,6 C 30,6 C 26,1 C 45 % 0 lf 1011,1 hPa 0,0 l/m 2 min 0 min 797 W/m 27,2 km/h (4 Bft) 93,62 %
08.05.2016 11:30 24,6 C 29,4 C 27,2 C 43 % 0 lf 1011,2 hPa 0,0 l/m 2 min 0 min 801 W/m 35,6 km/h (5 Bft) 93,62 %
08.05.2016 11:32 24,7 C 29,4 C 28,3 C 44 % 0 lf 1011,1 hPa 0,0 l/m 2 min 0 min 805 W/m 33,5 km/h (5 Bft) 93,62 %
08.05.2016 11:34 24,7 C 29,4 C 27,8 C 43 % 0 lf 1011,1 hPa 0,0 l/m 2 min 0 min 807 W/m 33,5 km/h (5 Bft) 95,74 %
08.05.2016 11:36 24,7 C 29,4 C 28,3 C 43 % 0 lf 1011,1 hPa 0,0 l/m 2 min 0 min 809 W/m 31,4 km/h (5 Bft) 95,74 %
08.05.2016 11:38 24,7 C 29,4 C 28,9 C 43 % 0 lf 1011,1 hPa 0,0 l/m 2 min 0 min 810 W/m 31,4 km/h (5 Bft) 95,65 %
08.05.2016 11:40 24,7 C 28,9 C 28,3 C 43 % 0 lf 1011,1 hPa 0,0 l/m 2 min 0 min 804 W/m 33,5 km/h (5 Bft) 95,74 %
08.05.2016 11:42 24,7 C 28,3 C 28,3 C 43 % 0 lf 1011,1 hPa 0,0 l/m 2 min 0 min 751 W/m 29,3 km/h (5 Bft) 93,62 %
08.05.2016 11:44 24,7 C 30,0 C 28,9 C 44 % 0 lf 1011,1 hPa 0,0 l/m 0 min 0 min 333 W/m 33,5 km/h (5 Bft) 95,74 %
08.05.2016 11:46 24,7 C 30,6 C 28,9 C 43 % 0 lf 1011,1 hPa 0,0 l/m 2 min 0 min 476 W/m 31,4 km/h (5 Bft) 95,74 %
08.05.2016 11:48 24,8 C 30,6 C 28,9 C 44 % 0 lf 1011,0 hPa 0,0 l/m 2 min 0 min 738 W/m 31,4 km/h (5 Bft) 93,62 %
08.05.2016 11:50 24,8 C 28,9 C 29,4 C 43 % 0 lf 1011,1 hPa 0,0 l/m 2 min 0 min 812 W/m 35,6 km/h (5 Bft) 95,65 %
08.05.2016 11:52 24,9 C 29,4 C 30,0 C 43 % 0 lf 1011,0 hPa 0,0 l/m 2 min 0 min 831 W/m 25,1 km/h (4 Bft) 95,74 %
08.05.2016 11:54 24,9 C 29,4 C 30,0 C 44 % 0 lf 1011,1 hPa 0,0 l/m 2 min 0 min 834 W/m 37,7 km/h (5 Bft) 95,74 %
08.05.2016 11:56 24,9 C 30,0 C 30,0 C 44 % 0 lf 1011,1 hPa 0,0 l/m 2 min 0 min 837 W/m 31,4 km/h (5 Bft) 91,49 %
08.05.2016 11:58 25,0 C 29,4 C 30,0 C 42 % 0 lf 1011,0 hPa 0,0 l/m 2 min 0 min 840 W/m 27,2 km/h (4 Bft) 95,74 %
08.05.2016 12:00 25,1 C 28,9 C 28,9 C 42 % 0 lf 1011,0 hPa 0,0 l/m 2 min 0 min 844 W/m 31,4 km/h (5 Bft) 93,48 %
08.05.2016 12:02 25,1 C 30,0 C 29,4 C 43 % 0 lf 1011,0 hPa 0,0 l/m 2 min 0 min 845 W/m 20,9 km/h (4 Bft) 95,74 %
08.05.2016 12:04 25,2 C 31,1 C 30,6 C 44 % 0 lf 1011,0 hPa 0,0 l/m 2 min 0 min 846 W/m 25,1 km/h (4 Bft) 95,83 %
08.05.2016 12:06 25,3 C 30,6 C 30,6 C 43 % 0 lf 1011,1 hPa 0,0 l/m 2 min 0 min 846 W/m 25,1 km/h (4 Bft) 95,74 %
08.05.2016 12:08 25,3 C 31,1 C 30,0 C 43 % 0 lf 1011,1 hPa 0,0 l/m 2 min 0 min 812 W/m 31,4 km/h (5 Bft) 93,62 %
08.05.2016 12:10 25,4 C 30,0 C 29,4 C 42 % 0 lf 1011,1 hPa 0,0 l/m 2 min 0 min 550 W/m 27,2 km/h (4 Bft) 93,62 %
08.05.2016 12:12 25,4 C 28,9 C 28,9 C 41 % 0 lf 1011,0 hPa 0,0 l/m 0 min 0 min 183 W/m 29,3 km/h (5 Bft) 91,30 %
08.05.2016 12:14 25,5 C 28,9 C 28,9 C 41 % 0 lf 1011,0 hPa 0,0 l/m 2 min 0 min 641 W/m 29,3 km/h (5 Bft) 93,62 %
08.05.2016 12:16 25,4 C 30,0 C 28,9 C 41 % 0 lf 1011,0 hPa 0,0 l/m 2 min 0 min 852 W/m 33,5 km/h (5 Bft) 91,49 %
08.05.2016 12:18 25,4 C 28,9 C 28,9 C 40 % 0 lf 1011,0 hPa 0,0 l/m 2 min 0 min 855 W/m 31,4 km/h (5 Bft) 95,74 %
08.05.2016 12:20 25,4 C 27,8 C 28,3 C 40 % 0 lf 1011,0 hPa 0,0 l/m 2 min 0 min 865 W/m 41,8 km/h (6 Bft) 95,74 %
08.05.2016 12:22 25,3 C 28,3 C 27,8 C 40 % 0 lf 1011,0 hPa 0,0 l/m 2 min 0 min 869 W/m 41,8 km/h (6 Bft) 95,74 %
08.05.2016 12:24 25,2 C 29,4 C 28,3 C 40 % 0 lf 1011,0 hPa 0,0 l/m 2 min 0 min 867 W/m 35,6 km/h (5 Bft) 91,30 %
08.05.2016 12:26 25,3 C 30,6 C 28,9 C 42 % 0 lf 1011,0 hPa 0,0 l/m 2 min 0 min 870 W/m 27,2 km/h (4 Bft) 95,74 %
08.05.2016 12:28 25,3 C 31,7 C 29,4 C 42 % 0 lf 1011,0 hPa 0,0 l/m 2 min 0 min 875 W/m 27,2 km/h (4 Bft) 93,62 %
08.05.2016 12:30 25,4 C 30,6 C 28,9 C 40 % 0 lf 1011,0 hPa 0,0 l/m 2 min 0 min 880 W/m 31,4 km/h (5 Bft) 97,87 %
08.05.2016 12:32 25,4 C 30,0 C 28,9 C 40 % 0 lf 1011,0 hPa 0,0 l/m 2 min 0 min 883 W/m 35,6 km/h (5 Bft) 97,87 %
08.05.2016 12:34 25,5 C 30,6 C 29,4 C 39 % 0 lf 1011,0 hPa 0,0 l/m 2 min 0 min 882 W/m 25,1 km/h (4 Bft) 95,74 %
08.05.2016 12:36 25,6 C 30,6 C 30,6 C 40 % 0 lf 1011,0 hPa 0,0 l/m 2 min 0 min 881 W/m 31,4 km/h (5 Bft) 95,65 %
08.05.2016 12:38 25,7 C 30,6 C 30,6 C 38 % 0 lf 1011,1 hPa 0,0 l/m 2 min 0 min 880 W/m 46,0 km/h (6 Bft) 97,87 %
08.05.2016 12:40 25,7 C 30,0 C 29,4 C 38 % 0 lf 1011,0 hPa 0,0 l/m 2 min 0 min 879 W/m 37,7 km/h (5 Bft) 95,74 %
08.05.2016 12:42 25,7 C 30,0 C 28,9 C 38 % 0 lf 1010,9 hPa 0,0 l/m 2 min 0 min 880 W/m 31,4 km/h (5 Bft) 95,74 %
08.05.2016 12:44 25,7 C 28,9 C 28,9 C 38 % 0 lf 1010,9 hPa 0,0 l/m 2 min 0 min 883 W/m 33,5 km/h (5 Bft) 97,87 %
08.05.2016 12:46 25,7 C 30,6 C 28,9 C 38 % 0 lf 1011,0 hPa 0,0 l/m 2 min 0 min 886 W/m 25,1 km/h (4 Bft) 93,62 %
08.05.2016 12:48 25,7 C 30,6 C 28,9 C 38 % 0 lf 1010,9 hPa 0,0 l/m 2 min 0 min 889 W/m 25,1 km/h (4 Bft) 100,00 %
08.05.2016 12:50 25,8 C 31,1 C 28,9 C 38 % 0 lf 1010,9 hPa 0,0 l/m 2 min 0 min 892 W/m 31,4 km/h (5 Bft) 95,74 %
08.05.2016 12:52 25,8 C 31,1 C 28,3 C 38 % 0 lf 1010,9 hPa 0,0 l/m 2 min 0 min 895 W/m 33,5 km/h (5 Bft) 100,00 %
08.05.2016 12:54 25,9 C 31,7 C 27,8 C 38 % 0 lf 1010,9 hPa 0,0 l/m 2 min 0 min 895 W/m 41,8 km/h (6 Bft) 100,00 %
08.05.2016 12:56 25,9 C 31,1 C 26,7 C 37 % 0 lf 1010,9 hPa 0,0 l/m 2 min 0 min 899 W/m 29,3 km/h (5 Bft) 97,87 %
08.05.2016 12:58 26,0 C 30,6 C 26,7 C 36 % 0 lf 1010,8 hPa 0,0 l/m 2 min 0 min 902 W/m 29,3 km/h (5 Bft) 95,74 %
08.05.2016 13:00 26,1 C 31,7 C 26,7 C 38 % 0 lf 1010,8 hPa 0,0 l/m 2 min 0 min 903 W/m 23,0 km/h (4 Bft) 95,65 %
08.05.2016 13:02 26,2 C 33,3 C 26,7 C 39 % 0 lf 1010,9 hPa 0,0 l/m 2 min 0 min 900 W/m 20,9 km/h (4 Bft) 97,87 %
08.05.2016 13:04 26,2 C 31,1 C 26,1 C 37 % 0 lf 1010,9 hPa 0,0 l/m 2 min 0 min 896 W/m 31,4 km/h (5 Bft) 97,87 %
08.05.2016 13:06 26,3 C 31,7 C 26,1 C 38 % 0 lf 1010,9 hPa 0,0 l/m 2 min 0 min 894 W/m 23,0 km/h (4 Bft) 97,87 %
08.05.2016 13:08 26,3 C 31,1 C 26,1 C 37 % 0 lf 1011,0 hPa 0,0 l/m 2 min 0 min 896 W/m 29,3 km/h (5 Bft) 97,87 %
08.05.2016 13:10 26,3 C 31,1 C 26,1 C 37 % 0 lf 1010,9 hPa 0,0 l/m 2 min 0 min 896 W/m 46,0 km/h (6 Bft) 93,62 %
08.05.2016 13:12 26,4 C 30,0 C 26,1 C 38 % 0 lf 1010,9 hPa 0,0 l/m 2 min 0 min 898 W/m 35,6 km/h (5 Bft) 97,83 %
08.05.2016 13:14 26,3 C 28,3 C 25,6 C 37 % 0 lf 1011,0 hPa 0,0 l/m 2 min 0 min 898 W/m 35,6 km/h (5 Bft) 97,87 %
08.05.2016 13:16 26,2 C 28,9 C 25,6 C 37 % 0 lf 1010,9 hPa 0,0 l/m 2 min 0 min 895 W/m 31,4 km/h (5 Bft) 91,49 %
08.05.2016 13:18 26,1 C 30,0 C 25,6 C 39 % 0 lf 1010,9 hPa 0,0 l/m 2 min 0 min 896 W/m 25,1 km/h (4 Bft) 97,87 %
08.05.2016 13:20 26,1 C 30,6 C 25,6 C 39 % 0 lf 1010,9 hPa 0,0 l/m 2 min 0 min 892 W/m 29,3 km/h (5 Bft) 97,87 %
08.05.2016 13:22 26,1 C 31,1 C 25,6 C 37 % 0 lf 1010,9 hPa 0,0 l/m 2 min 0 min 890 W/m 35,6 km/h (5 Bft) 97,83 %
08.05.2016 13:24 26,1 C 31,1 C 25,6 C 37 % 0 lf 1010,8 hPa 0,0 l/m 2 min 0 min 892 W/m 33,5 km/h (5 Bft) 97,87 %
08.05.2016 13:26 26,2 C 31,1 C 25,6 C 38 % 0 lf 1010,8 hPa 0,0 l/m 2 min 0 min 890 W/m 23,0 km/h (4 Bft) 95,74 %
08.05.2016 13:28 26,2 C 31,1 C 25,6 C 37 % 0 lf 1010,8 hPa 0,0 l/m 2 min 0 min 899 W/m 20,9 km/h (4 Bft) 97,87 %
08.05.2016 13:30 26,3 C 32,2 C 25,6 C 38 % 0 lf 1010,8 hPa 0,0 l/m 2 min 0 min 903 W/m 31,4 km/h (5 Bft) 100,00 %
08.05.2016 13:32 26,3 C 31,7 C 25,6 C 37 % 0 lf 1010,8 hPa 0,0 l/m 2 min 0 min 904 W/m 25,1 km/h (4 Bft) 95,74 %
08.05.2016 13:34 26,4 C 31,7 C 25,6 C 37 % 0 lf 1010,8 hPa 0,0 l/m 2 min 0 min 902 W/m 31,4 km/h (5 Bft) 95,65 %
08.05.2016 13:36 26,5 C 31,7 C 25,6 C 36 % 0 lf 1010,8 hPa 0,0 l/m 2 min 0 min 904 W/m 31,4 km/h (5 Bft) 97,87 %
08.05.2016 13:38 26,5 C 31,1 C 25,6 C 35 % 0 lf 1010,8 hPa 0,0 l/m 2 min 0 min 902 W/m 33,5 km/h (5 Bft) 100,00 %
08.05.2016 13:40 26,6 C 31,1 C 25,6 C 35 % 0 lf 1010,8 hPa 0,0 l/m 2 min 0 min 897 W/m 33,5 km/h (5 Bft) 100,00 %
08.05.2016 13:42 26,6 C 32,2 C 25,6 C 35 % 0 lf 1010,7 hPa 0,0 l/m 2 min 0 min 896 W/m 20,9 km/h (4 Bft) 100,00 %
08.05.2016 13:44 26,7 C 32,2 C 25,6 C 36 % 0 lf 1010,8 hPa 0,0 l/m 2 min 0 min 893 W/m 25,1 km/h (4 Bft) 97,87 %
08.05.2016 13:46 26,7 C 31,7 C 25,6 C 36 % 0 lf 1010,7 hPa 0,0 l/m 2 min 0 min 888 W/m 16,7 km/h (3 Bft) 100,00 %
08.05.2016 13:48 26,7 C 31,1 C 25,6 C 35 % 0 lf 1010,7 hPa 0,0 l/m 2 min 0 min 889 W/m 20,9 km/h (4 Bft) 97,87 %
08.05.2016 13:50 26,8 C 32,2 C 25,6 C 35 % 0 lf 1010,6 hPa 0,0 l/m 2 min 0 min 889 W/m 20,9 km/h (4 Bft) 97,87 %
08.05.2016 13:52 26,8 C 32,2 C 25,6 C 35 % 0 lf 1010,5 hPa 0,0 l/m 2 min 0 min 891 W/m 16,7 km/h (3 Bft) 100,00 %
08.05.2016 13:54 26,9 C 32,2 C 25,6 C 34 % 0 lf 1010,6 hPa 0,0 l/m 2 min 0 min 887 W/m 16,7 km/h (3 Bft) 100,00 %
08.05.2016 13:56 26,9 C 32,2 C 25,6 C 35 % 0 lf 1010,5 hPa 0,0 l/m 2 min 0 min 885 W/m 25,1 km/h (4 Bft) 97,87 %
08.05.2016 13:58 26,9 C 32,8 C 25,6 C 36 % 0 lf 1010,5 hPa 0,0 l/m 2 min 0 min 887 W/m 23,0 km/h (4 Bft) 97,83 %
08.05.2016 14:00 27,0 C 32,2 C 25,6 C 36 % 0 lf 1010,5 hPa 0,0 l/m 2 min 0 min 886 W/m 27,2 km/h (4 Bft) 100,00 %
08.05.2016 14:02 27,1 C 31,1 C 25,6 C 34 % 0 lf 1010,5 hPa 0,0 l/m 2 min 0 min 885 W/m 23,0 km/h (4 Bft) 100,00 %
08.05.2016 14:04 27,1 C 31,1 C 25,6 C 34 % 0 lf 1010,5 hPa 0,0 l/m 2 min 0 min 882 W/m 39,7 km/h (6 Bft) 100,00 %
08.05.2016 14:06 27,1 C 31,7 C 25,6 C 34 % 0 lf 1010,5 hPa 0,0 l/m 2 min 0 min 883 W/m 35,6 km/h (5 Bft) 97,87 %
08.05.2016 14:08 27,1 C 31,1 C 25,0 C 34 % 0 lf 1010,4 hPa 0,0 l/m 2 min 0 min 883 W/m 31,4 km/h (5 Bft) 100,00 %
08.05.2016 14:10 27,1 C 31,1 C 25,6 C 34 % 0 lf 1010,4 hPa 0,0 l/m 2 min 0 min 881 W/m 20,9 km/h (4 Bft) 100,00 %
08.05.2016 14:12 27,1 C 31,1 C 25,6 C 33 % 0 lf 1010,4 hPa 0,0 l/m 2 min 0 min 879 W/m 29,3 km/h (5 Bft) 100,00 %
08.05.2016 14:14 27,1 C 31,1 C 25,6 C 35 % 0 lf 1010,4 hPa 0,0 l/m 2 min 0 min 880 W/m 29,3 km/h (5 Bft) 100,00 %
08.05.2016 14:16 27,1 C 30,6 C 25,6 C 34 % 0 lf 1010,4 hPa 0,0 l/m 2 min 0 min 878 W/m 27,2 km/h (4 Bft) 100,00 %
08.05.2016 14:18 27,1 C 30,6 C 25,6 C 34 % 0 lf 1010,4 hPa 0,0 l/m 2 min 0 min 881 W/m 29,3 km/h (5 Bft) 95,74 %
08.05.2016 14:20 27,0 C 30,0 C 25,0 C 34 % 0 lf 1010,4 hPa 0,0 l/m 2 min 0 min 876 W/m 25,1 km/h (4 Bft) 100,00 %
08.05.2016 14:22 27,0 C 30,6 C 25,0 C 35 % 0 lf 1010,4 hPa 0,0 l/m 2 min 0 min 874 W/m 27,2 km/h (4 Bft) 97,83 %
08.05.2016 14:24 27,0 C 30,6 C 25,0 C 33 % 0 lf 1010,4 hPa 0,0 l/m 2 min 0 min 871 W/m 27,2 km/h (4 Bft) 100,00 %
08.05.2016 14:26 27,0 C 31,7 C 25,0 C 35 % 0 lf 1010,4 hPa 0,0 l/m 2 min 0 min 872 W/m 23,0 km/h (4 Bft) 97,87 %
08.05.2016 14:28 27,1 C 32,8 C 25,6 C 36 % 0 lf 1010,4 hPa 0,0 l/m 2 min 0 min 870 W/m 23,0 km/h (4 Bft) 95,74 %
08.05.2016 14:30 27,1 C 31,7 C 25,6 C 33 % 0 lf 1010,5 hPa 0,0 l/m 2 min 0 min 863 W/m 33,5 km/h (5 Bft) 97,87 %
08.05.2016 14:32 27,1 C 30,6 C 25,0 C 33 % 0 lf 1010,5 hPa 0,0 l/m 2 min 0 min 864 W/m 37,7 km/h (5 Bft) 95,74 %
08.05.2016 14:34 27,1 C 30,6 C 25,0 C 33 % 0 lf 1010,4 hPa 0,0 l/m 2 min 0 min 859 W/m 27,2 km/h (4 Bft) 97,83 %
08.05.2016 14:36 27,0 C 30,0 C 25,0 C 34 % 0 lf 1010,4 hPa 0,0 l/m 2 min 0 min 857 W/m 18,8 km/h (3 Bft) 95,74 %
08.05.2016 14:38 27,0 C 31,1 C 25,0 C 33 % 0 lf 1010,3 hPa 0,0 l/m 2 min 0 min 859 W/m 18,8 km/h (3 Bft) 95,74 %
08.05.2016 14:40 27,0 C 32,2 C 25,0 C 34 % 0 lf 1010,4 hPa 0,0 l/m 2 min 0 min 857 W/m 25,1 km/h (4 Bft) 95,74 %
08.05.2016 14:42 27,1 C 32,2 C 25,0 C 33 % 0 lf 1010,3 hPa 0,0 l/m 2 min 0 min 858 W/m 16,7 km/h (3 Bft) 93,62 %
08.05.2016 14:44 27,2 C 33,9 C 25,6 C 35 % 0 lf 1010,3 hPa 0,0 l/m 2 min 0 min 856 W/m 14,6 km/h (3 Bft) 95,65 %
08.05.2016 14:46 27,2 C 32,8 C 25,6 C 33 % 0 lf 1010,3 hPa 0,0 l/m 2 min 0 min 855 W/m 23,0 km/h (4 Bft) 91,49 %
08.05.2016 14:48 27,3 C 32,2 C 25,6 C 33 % 0 lf 1010,4 hPa 0,0 l/m 2 min 0 min 852 W/m 25,1 km/h (4 Bft) 91,49 %
08.05.2016 14:50 27,3 C 30,6 C 25,6 C 32 % 0 lf 1010,4 hPa 0,0 l/m 2 min 0 min 849 W/m 27,2 km/h (4 Bft) 93,62 %
08.05.2016 14:52 27,3 C 31,1 C 25,6 C 33 % 0 lf 1010,3 hPa 0,0 l/m 2 min 0 min 848 W/m 20,9 km/h (4 Bft) 95,74 %
08.05.2016 14:54 27,3 C 30,0 C 25,0 C 33 % 0 lf 1010,4 hPa 0,0 l/m 2 min 0 min 848 W/m 23,0 km/h (4 Bft) 91,49 %
08.05.2016 14:56 27,2 C 30,0 C 25,0 C 32 % 0 lf 1010,2 hPa 0,0 l/m 2 min 0 min 844 W/m 27,2 km/h (4 Bft) 93,48 %
08.05.2016 14:58 27,1 C 29,4 C 25,0 C 31 % 0 lf 1010,2 hPa 0,0 l/m 2 min 0 min 845 W/m 35,6 km/h (5 Bft) 93,62 %
08.05.2016 15:00 27,0 C 30,0 C 25,0 C 33 % 0 lf 1010,2 hPa 0,0 l/m 2 min 0 min 844 W/m 25,1 km/h (4 Bft) 91,49 %
08.05.2016 15:02 27,0 C 30,6 C 25,6 C 33 % 0 lf 1010,2 hPa 0,0 l/m 2 min 0 min 836 W/m 20,9 km/h (4 Bft) 93,62 %
08.05.2016 15:04 27,0 C 31,1 C 25,6 C 33 % 0 lf 1010,2 hPa 0,0 l/m 2 min 0 min 836 W/m 23,0 km/h (4 Bft) 89,36 %
08.05.2016 15:06 27,1 C 32,8 C 25,6 C 33 % 0 lf 1010,1 hPa 0,0 l/m 2 min 0 min 834 W/m 35,6 km/h (5 Bft) 85,11 %
08.05.2016 15:08 27,2 C 32,8 C 25,6 C 33 % 0 lf 1010,1 hPa 0,0 l/m 2 min 0 min 825 W/m 29,3 km/h (5 Bft) 91,30 %
08.05.2016 15:10 27,2 C 31,7 C 25,6 C 34 % 0 lf 1010,1 hPa 0,0 l/m 2 min 0 min 824 W/m 33,5 km/h (5 Bft) 89,36 %
08.05.2016 15:12 27,3 C 31,7 C 25,6 C 32 % 0 lf 1010,2 hPa 0,0 l/m 2 min 0 min 826 W/m 27,2 km/h (4 Bft) 89,36 %
08.05.2016 15:14 27,3 C 31,7 C 25,6 C 32 % 0 lf 1010,0 hPa 0,0 l/m 2 min 0 min 822 W/m 23,0 km/h (4 Bft) 93,62 %
08.05.2016 15:16 27,3 C 31,7 C 25,6 C 33 % 0 lf 1010,0 hPa 0,0 l/m 2 min 0 min 819 W/m 27,2 km/h (4 Bft) 89,36 %
08.05.2016 15:18 27,4 C 31,7 C 25,6 C 33 % 0 lf 1010,0 hPa 0,0 l/m 2 min 0 min 815 W/m 25,1 km/h (4 Bft) 89,36 %
08.05.2016 15:20 27,3 C 30,6 C 25,6 C 32 % 0 lf 1010,0 hPa 0,0 l/m 2 min 0 min 809 W/m 20,9 km/h (4 Bft) 89,13 %
08.05.2016 15:22 27,3 C 31,7 C 25,6 C 33 % 0 lf 1010,0 hPa 0,0 l/m 2 min 0 min 807 W/m 29,3 km/h (5 Bft) 91,49 %
08.05.2016 15:24 27,3 C 30,6 C 25,6 C 32 % 0 lf 1010,0 hPa 0,0 l/m 2 min 0 min 804 W/m 20,9 km/h (4 Bft) 85,11 %
08.05.2016 15:26 27,3 C 30,6 C 25,6 C 34 % 0 lf 1009,9 hPa 0,0 l/m 2 min 0 min 800 W/m 20,9 km/h (4 Bft) 93,62 %
08.05.2016 15:28 27,2 C 30,0 C 25,0 C 33 % 0 lf 1009,9 hPa 0,0 l/m 2 min 0 min 796 W/m 16,7 km/h (3 Bft) 91,49 %
08.05.2016 15:30 27,2 C 30,0 C 25,0 C 33 % 0 lf 1009,9 hPa 0,0 l/m 2 min 0 min 795 W/m 27,2 km/h (4 Bft) 93,62 %
08.05.2016 15:32 27,1 C 30,0 C 25,6 C 35 % 0 lf 1009,9 hPa 0,0 l/m 2 min 0 min 790 W/m 20,9 km/h (4 Bft) 95,65 %
08.05.2016 15:34 27,1 C 31,1 C 25,6 C 33 % 0 lf 1009,9 hPa 0,0 l/m 2 min 0 min 784 W/m 25,1 km/h (4 Bft) 95,74 %
08.05.2016 15:36 27,1 C 31,1 C 25,6 C 33 % 0 lf 1009,9 hPa 0,0 l/m 2 min 0 min 781 W/m 29,3 km/h (5 Bft) 97,87 %
08.05.2016 15:38 27,1 C 30,6 C 25,6 C 34 % 0 lf 1009,8 hPa 0,0 l/m 2 min 0 min 779 W/m 31,4 km/h (5 Bft) 95,74 %
08.05.2016 15:40 27,1 C 31,1 C 25,6 C 32 % 0 lf 1009,9 hPa 0,0 l/m 2 min 0 min 774 W/m 37,7 km/h (5 Bft) 91,49 %
08.05.2016 15:42 27,1 C 31,7 C 25,6 C 34 % 0 lf 1009,9 hPa 0,0 l/m 2 min 0 min 778 W/m 31,4 km/h (5 Bft) 95,74 %
08.05.2016 15:44 27,2 C 31,7 C 25,6 C 33 % 0 lf 1009,9 hPa 0,0 l/m 2 min 0 min 769 W/m 23,0 km/h (4 Bft) 100,00 %
08.05.2016 15:46 27,2 C 31,1 C 25,6 C 33 % 0 lf 1009,8 hPa 0,0 l/m 2 min 0 min 767 W/m 27,2 km/h (4 Bft) 100,00 %
08.05.2016 15:48 27,1 C 31,1 C 25,6 C 33 % 0 lf 1009,8 hPa 0,0 l/m 2 min 0 min 773 W/m 16,7 km/h (3 Bft) 100,00 %
08.05.2016 15:50 27,2 C 32,2 C 25,6 C 34 % 0 lf 1009,7 hPa 0,0 l/m 2 min 0 min 758 W/m 14,6 km/h (3 Bft) 97,87 %
08.05.2016 15:52 27,3 C 31,7 C 25,6 C 35 % 0 lf 1009,7 hPa 0,0 l/m 2 min 0 min 756 W/m 31,4 km/h (5 Bft) 95,74 %
08.05.2016 15:54 27,3 C 31,1 C 25,6 C 33 % 0 lf 1009,9 hPa 0,0 l/m 2 min 0 min 755 W/m 27,2 km/h (4 Bft) 100,00 %
08.05.2016 15:56 27,3 C 30,6 C 25,6 C 32 % 0 lf 1009,8 hPa 0,0 l/m 2 min 0 min 751 W/m 25,1 km/h (4 Bft) 97,83 %
08.05.2016 15:58 27,3 C 30,6 C 25,6 C 32 % 0 lf 1009,8 hPa 0,0 l/m 2 min 0 min 746 W/m 25,1 km/h (4 Bft) 100,00 %
08.05.2016 16:00 27,3 C 30,6 C 25,6 C 32 % 0 lf 1009,7 hPa 0,0 l/m 2 min 0 min 741 W/m 25,1 km/h (4 Bft) 100,00 %
08.05.2016 16:02 27,3 C 31,1 C 25,6 C 34 % 0 lf 1009,8 hPa 0,0 l/m 2 min 0 min 738 W/m 27,2 km/h (4 Bft) 100,00 %
08.05.2016 16:04 27,3 C 32,2 C 25,6 C 34 % 0 lf 1009,8 hPa 0,0 l/m 2 min 0 min 733 W/m 33,5 km/h (5 Bft) 95,74 %
08.05.2016 16:06 27,3 C 31,7 C 25,6 C 34 % 0 lf 1009,8 hPa 0,0 l/m 2 min 0 min 724 W/m 18,8 km/h (3 Bft) 100,00 %
08.05.2016 16:08 27,4 C 31,1 C 26,1 C 33 % 0 lf 1009,8 hPa 0,0 l/m 2 min 0 min 721 W/m 20,9 km/h (4 Bft) 100,00 %
08.05.2016 16:10 27,4 C 31,7 C 26,1 C 32 % 0 lf 1009,7 hPa 0,0 l/m 2 min 0 min 719 W/m 27,2 km/h (4 Bft) 97,87 %
08.05.2016 16:12 27,4 C 30,6 C 26,7 C 32 % 0 lf 1009,7 hPa 0,0 l/m 2 min 0 min 715 W/m 23,0 km/h (4 Bft) 100,00 %
08.05.2016 16:14 27,4 C 30,6 C 27,2 C 31 % 0 lf 1009,7 hPa 0,0 l/m 2 min 0 min 710 W/m 31,4 km/h (5 Bft) 100,00 %
08.05.2016 16:16 27,3 C 30,0 C 27,8 C 33 % 0 lf 1009,8 hPa 0,0 l/m 2 min 0 min 708 W/m 25,1 km/h (4 Bft) 100,00 %
08.05.2016 16:18 27,3 C 29,4 C 28,9 C 33 % 0 lf 1009,8 hPa 0,0 l/m 2 min 0 min 706 W/m 20,9 km/h (4 Bft) 100,00 %
08.05.2016 16:20 27,2 C 30,0 C 28,9 C 33 % 0 lf 1009,7 hPa 0,0 l/m 2 min 0 min 696 W/m 23,0 km/h (4 Bft) 100,00 %
08.05.2016 16:22 27,2 C 30,0 C 28,9 C 32 % 0 lf 1009,7 hPa 0,0 l/m 2 min 0 min 689 W/m 27,2 km/h (4 Bft) 95,74 %
08.05.2016 16:24 27,1 C 30,6 C 28,9 C 33 % 0 lf 1009,7 hPa 0,0 l/m 2 min 0 min 681 W/m 33,5 km/h (5 Bft) 97,87 %
08.05.2016 16:26 27,1 C 30,6 C 28,9 C 35 % 0 lf 1009,6 hPa 0,0 l/m 2 min 0 min 674 W/m 25,1 km/h (4 Bft) 100,00 %
08.05.2016 16:28 27,1 C 30,6 C 27,8 C 34 % 0 lf 1009,7 hPa 0,0 l/m 2 min 0 min 670 W/m 20,9 km/h (4 Bft) 100,00 %
08.05.2016 16:30 27,1 C 30,6 C 27,2 C 34 % 0 lf 1009,7 hPa 0,0 l/m 2 min 0 min 663 W/m 25,1 km/h (4 Bft) 100,00 %
08.05.2016 16:32 27,1 C 30,0 C 26,7 C 34 % 0 lf 1009,7 hPa 0,0 l/m 2 min 0 min 660 W/m 33,5 km/h (5 Bft) 97,87 %
08.05.2016 16:34 27,1 C 30,0 C 27,2 C 34 % 0 lf 1009,7 hPa 0,0 l/m 2 min 0 min 656 W/m 20,9 km/h (4 Bft) 100,00 %
08.05.2016 16:36 27,1 C 30,0 C 27,8 C 34 % 0 lf 1009,6 hPa 0,0 l/m 2 min 0 min 650 W/m 20,9 km/h (4 Bft) 100,00 %
08.05.2016 16:38 27,1 C 31,1 C 27,8 C 35 % 0 lf 1009,6 hPa 0,0 l/m 2 min 0 min 649 W/m 23,0 km/h (4 Bft) 95,74 %
08.05.2016 16:40 27,1 C 31,7 C 27,8 C 34 % 0 lf 1009,6 hPa 0,0 l/m 2 min 0 min 645 W/m 27,2 km/h (4 Bft) 100,00 %
08.05.2016 16:42 27,2 C 31,7 C 27,2 C 33 % 0 lf 1009,6 hPa 0,0 l/m 2 min 0 min 641 W/m 25,1 km/h (4 Bft) 100,00 %
08.05.2016 16:44 27,3 C 31,7 C 26,7 C 34 % 0 lf 1009,6 hPa 0,0 l/m 2 min 0 min 639 W/m 23,0 km/h (4 Bft) 97,87 %
08.05.2016 16:46 27,3 C 31,1 C 26,1 C 34 % 0 lf 1009,6 hPa 0,0 l/m 2 min 0 min 637 W/m 35,6 km/h (5 Bft) 95,74 %
08.05.2016 16:48 27,3 C 30,6 C 25,6 C 34 % 0 lf 1009,7 hPa 0,0 l/m 2 min 0 min 625 W/m 29,3 km/h (5 Bft) 100,00 %
08.05.2016 16:50 27,3 C 30,0 C 25,6 C 34 % 0 lf 1009,6 hPa 0,0 l/m 2 min 0 min 616 W/m 29,3 km/h (5 Bft) 95,74 %
08.05.2016 16:52 27,3 C 29,4 C 25,0 C 32 % 0 lf 1009,6 hPa 0,0 l/m 2 min 0 min 616 W/m 25,1 km/h (4 Bft) 95,74 %
08.05.2016 16:54 27,2 C 30,0 C 25,0 C 33 % 0 lf 1009,5 hPa 0,0 l/m 2 min 0 min 612 W/m 27,2 km/h (4 Bft) 100,00 %
08.05.2016 16:56 27,2 C 30,0 C 25,0 C 33 % 0 lf 1009,6 hPa 0,0 l/m 2 min 0 min 605 W/m 29,3 km/h (5 Bft) 97,87 %
08.05.2016 16:58 27,2 C 30,0 C 25,0 C 33 % 0 lf 1009,5 hPa 0,0 l/m 2 min 0 min 601 W/m 23,0 km/h (4 Bft) 100,00 %
08.05.2016 17:00 27,2 C 29,4 C 25,0 C 33 % 0 lf 1009,6 hPa 0,0 l/m 2 min 0 min 597 W/m 35,6 km/h (5 Bft) 97,87 %
08.05.2016 17:02 27,1 C 30,0 C 25,0 C 34 % 0 lf 1009,5 hPa 0,0 l/m 2 min 0 min 592 W/m 25,1 km/h (4 Bft) 93,62 %
08.05.2016 17:04 27,1 C 30,0 C 25,0 C 33 % 0 lf 1009,6 hPa 0,0 l/m 2 min 0 min 584 W/m 23,0 km/h (4 Bft) 95,74 %
08.05.2016 17:06 27,1 C 30,6 C 25,0 C 34 % 0 lf 1009,3 hPa 0,0 l/m 2 min 0 min 579 W/m 23,0 km/h (4 Bft) 97,83 %
08.05.2016 17:08 27,1 C 30,6 C 24,4 C 34 % 0 lf 1009,5 hPa 0,0 l/m 2 min 0 min 574 W/m 18,8 km/h (3 Bft) 95,74 %
08.05.2016 17:10 27,1 C 30,0 C 24,4 C 33 % 0 lf 1009,4 hPa 0,0 l/m 2 min 0 min 571 W/m 23,0 km/h (4 Bft) 97,87 %
08.05.2016 17:12 27,1 C 30,6 C 24,4 C 34 % 0 lf 1009,4 hPa 0,0 l/m 2 min 0 min 563 W/m 23,0 km/h (4 Bft) 100,00 %
08.05.2016 17:14 27,1 C 30,6 C 24,4 C 34 % 0 lf 1009,5 hPa 0,0 l/m 2 min 0 min 562 W/m 20,9 km/h (4 Bft) 95,74 %
08.05.2016 17:16 27,1 C 30,6 C 24,4 C 33 % 0 lf 1009,5 hPa 0,0 l/m 2 min 0 min 555 W/m 20,9 km/h (4 Bft) 93,62 %
08.05.2016 17:18 27,1 C 28,9 C 24,4 C 33 % 0 lf 1009,6 hPa 0,0 l/m 2 min 0 min 549 W/m 33,5 km/h (5 Bft) 95,65 %
08.05.2016 17:20 27,0 C 28,9 C 24,4 C 34 % 0 lf 1009,6 hPa 0,0 l/m 2 min 0 min 544 W/m 27,2 km/h (4 Bft) 97,87 %
08.05.2016 17:22 26,9 C 28,9 C 24,4 C 34 % 0 lf 1009,6 hPa 0,0 l/m 2 min 0 min 542 W/m 29,3 km/h (5 Bft) 97,87 %
08.05.2016 17:24 26,9 C 28,9 C 24,4 C 34 % 0 lf 1009,6 hPa 0,0 l/m 2 min 0 min 540 W/m 25,1 km/h (4 Bft) 91,49 %
08.05.2016 17:26 26,9 C 28,9 C 24,4 C 34 % 0 lf 1009,5 hPa 0,0 l/m 2 min 0 min 535 W/m 25,1 km/h (4 Bft) 95,74 %
08.05.2016 17:28 26,8 C 29,4 C 24,4 C 33 % 0 lf 1009,5 hPa 0,0 l/m 2 min 0 min 529 W/m 25,1 km/h (4 Bft) 95,65 %
08.05.2016 17:30 26,8 C 28,9 C 24,4 C 33 % 0 lf 1009,6 hPa 0,0 l/m 2 min 0 min 524 W/m 41,8 km/h (6 Bft) 91,49 %
08.05.2016 17:32 26,8 C 28,9 C 24,4 C 34 % 0 lf 1009,6 hPa 0,0 l/m 2 min 0 min 519 W/m 31,4 km/h (5 Bft) 93,62 %
08.05.2016 17:34 26,8 C 28,9 C 24,4 C 34 % 0 lf 1009,6 hPa 0,0 l/m 2 min 0 min 512 W/m 18,8 km/h (3 Bft) 95,74 %
08.05.2016 17:36 26,8 C 27,8 C 24,4 C 33 % 0 lf 1009,5 hPa 0,0 l/m 2 min 0 min 505 W/m 29,3 km/h (5 Bft) 97,87 %
08.05.2016 17:38 26,8 C 27,8 C 24,4 C 34 % 0 lf 1009,4 hPa 0,0 l/m 2 min 0 min 504 W/m 46,0 km/h (6 Bft) 95,74 %
08.05.2016 17:40 26,7 C 27,2 C 24,4 C 33 % 0 lf 1009,5 hPa 0,0 l/m 2 min 0 min 498 W/m 43,9 km/h (6 Bft) 95,65 %
08.05.2016 17:42 26,7 C 27,8 C 24,4 C 33 % 0 lf 1009,5 hPa 0,0 l/m 2 min 0 min 489 W/m 33,5 km/h (5 Bft) 89,36 %
08.05.2016 17:44 26,7 C 28,3 C 24,4 C 33 % 0 lf 1009,5 hPa 0,0 l/m 2 min 0 min 484 W/m 31,4 km/h (5 Bft) 93,62 %
08.05.2016 17:46 26,7 C 27,8 C 23,9 C 32 % 0 lf 1009,5 hPa 0,0 l/m 2 min 0 min 481 W/m 37,7 km/h (5 Bft) 95,74 %
08.05.2016 17:48 26,6 C 27,8 C 23,9 C 33 % 0 lf 1009,4 hPa 0,0 l/m 2 min 0 min 474 W/m 27,2 km/h (4 Bft) 95,74 %
08.05.2016 17:50 26,6 C 27,2 C 23,9 C 34 % 0 lf 1009,3 hPa 0,0 l/m 2 min 0 min 468 W/m 23,0 km/h (4 Bft) 95,74 %
08.05.2016 17:52 26,5 C 27,2 C 23,9 C 34 % 0 lf 1009,2 hPa 0,0 l/m 2 min 0 min 463 W/m 27,2 km/h (4 Bft) 97,83 %
08.05.2016 17:54 26,5 C 27,2 C 24,4 C 34 % 0 lf 1009,4 hPa 0,0 l/m 2 min 0 min 458 W/m 25,1 km/h (4 Bft) 97,87 %
08.05.2016 17:56 26,5 C 26,7 C 23,9 C 34 % 0 lf 1009,3 hPa 0,0 l/m 2 min 0 min 452 W/m 35,6 km/h (5 Bft) 93,62 %
08.05.2016 17:58 26,4 C 26,7 C 23,9 C 34 % 0 lf 1009,3 hPa 0,0 l/m 2 min 0 min 448 W/m 25,1 km/h (4 Bft) 95,74 %
08.05.2016 18:00 26,4 C 26,7 C 23,9 C 34 % 0 lf 1009,3 hPa 0,0 l/m 2 min 0 min 442 W/m 27,2 km/h (4 Bft) 89,36 %
08.05.2016 18:02 26,4 C 26,1 C 23,9 C 33 % 0 lf 1009,3 hPa 0,0 l/m 2 min 0 min 435 W/m 29,3 km/h (5 Bft) 95,74 %
08.05.2016 18:04 26,3 C 26,1 C 23,9 C 34 % 0 lf 1009,2 hPa 0,0 l/m 2 min 0 min 431 W/m 23,0 km/h (4 Bft) 89,13 %
08.05.2016 18:06 26,3 C 26,1 C 23,9 C 34 % 0 lf 1009,2 hPa 0,0 l/m 2 min 0 min 427 W/m 31,4 km/h (5 Bft) 95,74 %
08.05.2016 18:08 26,3 C 26,1 C 23,9 C 33 % 0 lf 1009,3 hPa 0,0 l/m 2 min 0 min 421 W/m 33,5 km/h (5 Bft) 91,49 %
08.05.2016 18:10 26,2 C 26,7 C 23,9 C 33 % 0 lf 1009,4 hPa 0,0 l/m 2 min 0 min 415 W/m 27,2 km/h (4 Bft) 95,74 %
08.05.2016 18:12 26,2 C 26,7 C 23,9 C 34 % 0 lf 1009,4 hPa 0,0 l/m 2 min 0 min 407 W/m 23,0 km/h (4 Bft) 95,74 %
08.05.2016 18:14 26,2 C 26,7 C 23,9 C 34 % 0 lf 1009,2 hPa 0,0 l/m 2 min 0 min 401 W/m 25,1 km/h (4 Bft) 93,62 %
08.05.2016 18:16 26,2 C 26,7 C 23,9 C 34 % 0 lf 1009,3 hPa 0,0 l/m 2 min 0 min 395 W/m 25,1 km/h (4 Bft) 95,65 %
08.05.2016 18:18 26,2 C 26,7 C 23,9 C 34 % 0 lf 1009,3 hPa 0,0 l/m 2 min 0 min 390 W/m 27,2 km/h (4 Bft) 95,74 %
08.05.2016 18:20 26,2 C 26,7 C 23,9 C 34 % 0 lf 1009,4 hPa 0,0 l/m 2 min 0 min 382 W/m 23,0 km/h (4 Bft) 95,74 %
08.05.2016 18:22 26,2 C 26,7 C 23,9 C 34 % 0 lf 1009,3 hPa 0,0 l/m 2 min 0 min 379 W/m 16,7 km/h (3 Bft) 95,74 %
08.05.2016 18:24 26,2 C 26,7 C 23,3 C 34 % 0 lf 1009,4 hPa 0,0 l/m 2 min 0 min 373 W/m 18,8 km/h (3 Bft) 95,74 %
08.05.2016 18:26 26,2 C 26,7 C 23,3 C 35 % 0 lf 1009,4 hPa 0,0 l/m 2 min 0 min 368 W/m 35,6 km/h (5 Bft) 96,00 %
08.05.2016 18:28 26,1 C 26,1 C 23,9 C 33 % 0 lf 1009,4 hPa 0,0 l/m 2 min 0 min 363 W/m 35,6 km/h (5 Bft) 93,48 %
08.05.2016 18:30 26,1 C 26,1 C 23,9 C 33 % 0 lf 1009,3 hPa 0,0 l/m 2 min 0 min 359 W/m 27,2 km/h (4 Bft) 93,62 %
08.05.2016 18:32 26,1 C 26,1 C 23,9 C 33 % 0 lf 1009,3 hPa 0,0 l/m 2 min 0 min 353 W/m 33,5 km/h (5 Bft) 93,62 %
08.05.2016 18:34 26,1 C 26,1 C 23,9 C 33 % 0 lf 1009,3 hPa 0,0 l/m 2 min 0 min 347 W/m 23,0 km/h (4 Bft) 95,74 %
08.05.2016 18:36 26,1 C 26,1 C 23,9 C 34 % 0 lf 1009,2 hPa 0,0 l/m 2 min 0 min 343 W/m 18,8 km/h (3 Bft) 93,62 %
08.05.2016 18:38 26,1 C 26,1 C 23,9 C 34 % 0 lf 1009,3 hPa 0,0 l/m 2 min 0 min 337 W/m 33,5 km/h (5 Bft) 95,65 %
08.05.2016 18:40 26,1 C 26,1 C 23,9 C 34 % 0 lf 1009,3 hPa 0,0 l/m 2 min 0 min 330 W/m 33,5 km/h (5 Bft) 93,62 %
08.05.2016 18:42 26,0 C 26,1 C 23,3 C 33 % 0 lf 1009,3 hPa 0,0 l/m 2 min 0 min 325 W/m 35,6 km/h (5 Bft) 95,74 %
08.05.2016 18:44 26,0 C 26,1 C 23,9 C 33 % 0 lf 1009,3 hPa 0,0 l/m 2 min 0 min 319 W/m 25,1 km/h (4 Bft) 93,62 %
08.05.2016 18:46 26,0 C 26,1 C 23,3 C 33 % 0 lf 1009,3 hPa 0,0 l/m 2 min 0 min 314 W/m 16,7 km/h (3 Bft) 95,74 %
08.05.2016 18:48 25,9 C 26,1 C 23,3 C 34 % 0 lf 1009,3 hPa 0,0 l/m 2 min 0 min 308 W/m 18,8 km/h (3 Bft) 93,62 %
08.05.2016 18:50 25,9 C 26,1 C 23,3 C 34 % 0 lf 1009,3 hPa 0,0 l/m 2 min 0 min 301 W/m 25,1 km/h (4 Bft) 93,48 %
08.05.2016 18:52 25,9 C 26,1 C 23,3 C 33 % 0 lf 1009,2 hPa 0,0 l/m 2 min 0 min 296 W/m 41,8 km/h (6 Bft) 95,74 %
08.05.2016 18:54 25,9 C 26,1 C 23,9 C 32 % 0 lf 1009,3 hPa 0,0 l/m 2 min 0 min 290 W/m 25,1 km/h (4 Bft) 95,74 %
08.05.2016 18:56 25,9 C 26,1 C 23,3 C 33 % 0 lf 1009,3 hPa 0,0 l/m 2 min 0 min 285 W/m 27,2 km/h (4 Bft) 97,87 %
08.05.2016 18:58 25,9 C 26,1 C 23,3 C 33 % 0 lf 1009,2 hPa 0,0 l/m 2 min 0 min 280 W/m 29,3 km/h (5 Bft) 93,62 %
08.05.2016 19:00 25,8 C 25,6 C 23,3 C 33 % 0 lf 1009,3 hPa 0,0 l/m 2 min 0 min 271 W/m 27,2 km/h (4 Bft) 93,62 %
08.05.2016 19:02 25,8 C 25,6 C 23,3 C 34 % 0 lf 1009,2 hPa 0,0 l/m 2 min 0 min 266 W/m 31,4 km/h (5 Bft) 97,83 %
08.05.2016 19:04 25,8 C 25,6 C 23,3 C 34 % 0 lf 1009,2 hPa 0,0 l/m 2 min 0 min 258 W/m 16,7 km/h (3 Bft) 95,74 %
08.05.2016 19:06 25,8 C 25,6 C 23,3 C 34 % 0 lf 1009,2 hPa 0,0 l/m 2 min 0 min 252 W/m 18,8 km/h (3 Bft) 97,87 %
08.05.2016 19:08 25,7 C 25,6 C 22,8 C 34 % 0 lf 1009,1 hPa 0,0 l/m 2 min 0 min 245 W/m 18,8 km/h (3 Bft) 93,62 %
08.05.2016 19:10 25,7 C 25,6 C 22,8 C 34 % 0 lf 1009,1 hPa 0,0 l/m 2 min 0 min 239 W/m 20,9 km/h (4 Bft) 97,87 %
08.05.2016 19:12 25,7 C 25,6 C 22,8 C 35 % 0 lf 1009,1 hPa 0,0 l/m 2 min 0 min 231 W/m 18,8 km/h (3 Bft) 95,74 %
08.05.2016 19:14 25,7 C 25,6 C 22,8 C 34 % 0 lf 1009,2 hPa 0,0 l/m 2 min 0 min 223 W/m 18,8 km/h (3 Bft) 93,48 %
08.05.2016 19:16 25,6 C 25,6 C 22,8 C 34 % 0 lf 1009,2 hPa 0,0 l/m 2 min 0 min 217 W/m 23,0 km/h (4 Bft) 97,87 %
08.05.2016 19:18 25,6 C 25,6 C 23,3 C 34 % 0 lf 1009,1 hPa 0,0 l/m 2 min 0 min 211 W/m 23,0 km/h (4 Bft) 97,87 %
08.05.2016 19:20 25,6 C 25,6 C 23,3 C 34 % 0 lf 1009,2 hPa 0,0 l/m 2 min 0 min 204 W/m 29,3 km/h (5 Bft) 93,62 %
08.05.2016 19:22 25,6 C 25,6 C 22,8 C 35 % 0 lf 1009,1 hPa 0,0 l/m 2 min 0 min 197 W/m 14,6 km/h (3 Bft) 95,74 %
08.05.2016 19:24 25,6 C 25,0 C 22,8 C 35 % 0 lf 1009,1 hPa 0,0 l/m 2 min 0 min 189 W/m 16,7 km/h (3 Bft) 97,87 %
08.05.2016 19:26 25,5 C 25,0 C 22,8 C 35 % 0 lf 1009,1 hPa 0,0 l/m 2 min 0 min 184 W/m 14,6 km/h (3 Bft) 97,83 %
08.05.2016 19:28 25,5 C 25,0 C 22,8 C 35 % 0 lf 1009,1 hPa 0,0 l/m 2 min 0 min 178 W/m 18,8 km/h (3 Bft) 95,74 %
08.05.2016 19:30 25,4 C 25,0 C 22,8 C 36 % 0 lf 1009,2 hPa 0,0 l/m 2 min 0 min 171 W/m 10,5 km/h (2 Bft) 97,87 %
08.05.2016 19:32 25,4 C 25,0 C 22,8 C 36 % 0 lf 1009,2 hPa 0,0 l/m 2 min 0 min 163 W/m 14,6 km/h (3 Bft) 95,74 %
08.05.2016 19:34 25,4 C 25,0 C 22,2 C 36 % 0 lf 1009,3 hPa 0,0 l/m 2 min 0 min 157 W/m 14,6 km/h (3 Bft) 95,74 %
08.05.2016 19:36 25,3 C 25,0 C 22,2 C 37 % 0 lf 1009,4 hPa 0,0 l/m 2 min 0 min 150 W/m 16,7 km/h (3 Bft) 95,74 %
08.05.2016 19:38 25,3 C 25,0 C 22,2 C 37 % 0 lf 1009,3 hPa 0,0 l/m 2 min 0 min 143 W/m 12,6 km/h (3 Bft) 100,00 %
08.05.2016 19:40 25,3 C 24,4 C 22,2 C 37 % 0 lf 1009,3 hPa 0,0 l/m 2 min 0 min 137 W/m 16,7 km/h (3 Bft) 100,00 %
08.05.2016 19:42 25,2 C 24,4 C 22,2 C 36 % 0 lf 1009,4 hPa 0,0 l/m 2 min 0 min 131 W/m 14,6 km/h (3 Bft) 100,00 %
08.05.2016 19:44 25,2 C 24,4 C 21,7 C 37 % 0 lf 1009,4 hPa 0,0 l/m 2 min 0 min 126 W/m 10,5 km/h (2 Bft) 97,87 %
08.05.2016 19:46 25,1 C 24,4 C 21,7 C 37 % 0 lf 1009,4 hPa 0,0 l/m 2 min 0 min 120 W/m 6,3 km/h (2 Bft) 95,74 %
08.05.2016 19:48 25,1 C 24,4 C 21,7 C 37 % 0 lf 1009,4 hPa 0,0 l/m 2 min 0 min 114 W/m 12,6 km/h (3 Bft) 97,87 %
08.05.2016 19:50 25,0 C 24,4 C 21,7 C 37 % 0 lf 1009,4 hPa 0,0 l/m 2 min 0 min 109 W/m 14,6 km/h (3 Bft) 100,00 %
08.05.2016 19:52 25,0 C 24,4 C 21,7 C 37 % 0 lf 1009,4 hPa 0,0 l/m 2 min 0 min 103 W/m 12,6 km/h (3 Bft) 95,74 %
08.05.2016 19:54 24,9 C 24,4 C 21,7 C 37 % 0 lf 1009,4 hPa 0,0 l/m 2 min 0 min 98 W/m 10,5 km/h (2 Bft) 100,00 %
08.05.2016 19:56 24,9 C 24,4 C 21,7 C 37 % 0 lf 1009,4 hPa 0,0 l/m 2 min 0 min 93 W/m 12,6 km/h (3 Bft) 97,87 %
08.05.2016 19:58 24,8 C 24,4 C 21,7 C 37 % 0 lf 1009,4 hPa 0,0 l/m 2 min 0 min 88 W/m 8,4 km/h (2 Bft) 95,74 %
08.05.2016 20:00 24,8 C 23,9 C 21,1 C 38 % 0 lf 1009,4 hPa 0,0 l/m 2 min 0 min 83 W/m 10,5 km/h (2 Bft) 95,65 %
08.05.2016 20:02 24,8 C 23,9 C 21,1 C 38 % 0 lf 1009,5 hPa 0,0 l/m 2 min 0 min 78 W/m 8,4 km/h (2 Bft) 97,87 %
08.05.2016 20:04 24,7 C 23,9 C 21,1 C 38 % 0 lf 1009,5 hPa 0,0 l/m 2 min 0 min 74 W/m 8,4 km/h (2 Bft) 97,87 %
08.05.2016 20:06 24,7 C 23,9 C 21,1 C 38 % 0 lf 1009,5 hPa 0,0 l/m 0 min 0 min 68 W/m 14,6 km/h (3 Bft) 93,62 %
08.05.2016 20:08 24,6 C 23,9 C 21,1 C 38 % 0 lf 1009,5 hPa 0,0 l/m 0 min 0 min 63 W/m 14,6 km/h (3 Bft) 97,87 %
08.05.2016 20:10 24,6 C 23,9 C 21,1 C 38 % 0 lf 1009,5 hPa 0,0 l/m 0 min 0 min 60 W/m 10,5 km/h (2 Bft) 97,87 %
08.05.2016 20:12 24,6 C 23,9 C 21,1 C 38 % 0 lf 1009,5 hPa 0,0 l/m 0 min 0 min 55 W/m 12,6 km/h (3 Bft) 97,83 %
08.05.2016 20:14 24,5 C 23,9 C 20,6 C 39 % 0 lf 1009,6 hPa 0,0 l/m 0 min 0 min 51 W/m 16,7 km/h (3 Bft) 95,74 %
08.05.2016 20:16 24,4 C 23,9 C 20,6 C 38 % 0 lf 1009,7 hPa 0,0 l/m 0 min 0 min 47 W/m 14,6 km/h (3 Bft) 93,62 %
08.05.2016 20:18 24,4 C 23,9 C 20,6 C 38 % 0 lf 1009,7 hPa 0,0 l/m 0 min 0 min 45 W/m 10,5 km/h (2 Bft) 95,74 %
08.05.2016 20:20 24,3 C 23,3 C 20,6 C 38 % 0 lf 1009,6 hPa 0,0 l/m 0 min 0 min 40 W/m 12,6 km/h (3 Bft) 97,87 %
08.05.2016 20:22 24,3 C 23,3 C 21,1 C 37 % 0 lf 1009,7 hPa 0,0 l/m 0 min 0 min 38 W/m 14,6 km/h (3 Bft) 97,87 %
08.05.2016 20:24 24,2 C 23,3 C 21,1 C 38 % 0 lf 1009,7 hPa 0,0 l/m 0 min 0 min 34 W/m 16,7 km/h (3 Bft) 97,83 %
08.05.2016 20:26 24,2 C 23,3 C 20,6 C 38 % 0 lf 1009,7 hPa 0,0 l/m 0 min 0 min 32 W/m 14,6 km/h (3 Bft) 97,87 %
08.05.2016 20:28 24,1 C 23,3 C 20,6 C 38 % 0 lf 1009,8 hPa 0,0 l/m 0 min 0 min 29 W/m 8,4 km/h (2 Bft) 97,87 %
08.05.2016 20:30 24,1 C 23,3 C 20,0 C 39 % 0 lf 1009,7 hPa 0,0 l/m 0 min 0 min 27 W/m 8,4 km/h (2 Bft) 97,87 %
08.05.2016 20:32 24,0 C 22,8 C 20,0 C 39 % 0 lf 1009,8 hPa 0,0 l/m 0 min 0 min 25 W/m 10,5 km/h (2 Bft) 97,87 %
08.05.2016 20:34 24,0 C 22,8 C 20,0 C 39 % 0 lf 1009,8 hPa 0,0 l/m 0 min 0 min 24 W/m 8,4 km/h (2 Bft) 93,62 %
08.05.2016 20:36 23,9 C 22,8 C 19,4 C 40 % 0 lf 1009,8 hPa 0,0 l/m 0 min 0 min 23 W/m 10,5 km/h (2 Bft) 95,65 %
08.05.2016 20:38 23,9 C 22,8 C 19,4 C 40 % 0 lf 1009,8 hPa 0,0 l/m 0 min 0 min 21 W/m 14,6 km/h (3 Bft) 97,87 %
08.05.2016 20:40 23,8 C 22,8 C 19,4 C 40 % 0 lf 1009,8 hPa 0,0 l/m 0 min 0 min 20 W/m 8,4 km/h (2 Bft) 97,87 %
08.05.2016 20:42 23,8 C 22,8 C 19,4 C 40 % 0 lf 1009,8 hPa 0,0 l/m 0 min 0 min 19 W/m 8,4 km/h (2 Bft) 97,87 %
08.05.2016 20:44 23,7 C 22,2 C 19,4 C 40 % 0 lf 1009,9 hPa 0,0 l/m 0 min 0 min 18 W/m 12,6 km/h (3 Bft) 100,00 %
08.05.2016 20:46 23,6 C 22,8 C 19,4 C 40 % 0 lf 1009,9 hPa 0,0 l/m 0 min 0 min 18 W/m 14,6 km/h (3 Bft) 97,87 %
08.05.2016 20:48 23,5 C 22,2 C 19,4 C 40 % 0 lf 1009,8 hPa 0,0 l/m 0 min 0 min 16 W/m 14,6 km/h (3 Bft) 93,48 %
08.05.2016 20:50 23,4 C 22,2 C 18,9 C 40 % 0 lf 1009,8 hPa 0,0 l/m 0 min 0 min 15 W/m 12,6 km/h (3 Bft) 97,87 %
08.05.2016 20:52 23,4 C 22,2 C 19,4 C 40 % 0 lf 1009,9 hPa 0,0 l/m 0 min 0 min 14 W/m 14,6 km/h (3 Bft) 100,00 %
08.05.2016 20:54 23,3 C 22,2 C 19,4 C 40 % 0 lf 1009,8 hPa 0,0 l/m 0 min 0 min 13 W/m 14,6 km/h (3 Bft) 93,62 %
08.05.2016 20:56 23,2 C 22,2 C 19,4 C 40 % 0 lf 1009,9 hPa 0,0 l/m 0 min 0 min 12 W/m 14,6 km/h (3 Bft) 100,00 %
08.05.2016 20:58 23,2 C 22,2 C 19,4 C 40 % 0 lf 1009,9 hPa 0,0 l/m 0 min 0 min 12 W/m 8,4 km/h (2 Bft) 95,74 %
08.05.2016 21:00 23,1 C 22,2 C 19,4 C 40 % 0 lf 1009,9 hPa 0,0 l/m 0 min 0 min 11 W/m 10,5 km/h (2 Bft) 100,00 %
08.05.2016 21:02 23,1 C 21,7 C 18,9 C 41 % 0 lf 1009,9 hPa 0,0 l/m 0 min 0 min 10 W/m 8,4 km/h (2 Bft) 100,00 %
08.05.2016 21:04 23,0 C 21,7 C 18,9 C 41 % 0 lf 1010,0 hPa 0,0 l/m 0 min 0 min 9 W/m 8,4 km/h (2 Bft) 95,74 %
08.05.2016 21:06 22,9 C 21,7 C 18,9 C 41 % 0 lf 1010,0 hPa 0,0 l/m 0 min 0 min 8 W/m 10,5 km/h (2 Bft) 95,74 %
08.05.2016 21:08 22,8 C 21,1 C 18,9 C 41 % 0 lf 1010,0 hPa 0,0 l/m 0 min 0 min 7 W/m 8,4 km/h (2 Bft) 97,87 %
08.05.2016 21:10 22,8 C 21,1 C 18,3 C 41 % 0 lf 1010,0 hPa 0,0 l/m 0 min 0 min 7 W/m 8,4 km/h (2 Bft) 97,83 %
08.05.2016 21:12 22,7 C 21,1 C 18,3 C 42 % 0 lf 1010,0 hPa 0,0 l/m 0 min 0 min 5 W/m 8,4 km/h (2 Bft) 97,87 %
08.05.2016 21:14 22,6 C 21,1 C 17,8 C 42 % 0 lf 1010,1 hPa 0,0 l/m 0 min 0 min 5 W/m 8,4 km/h (2 Bft) 93,62 %
08.05.2016 21:16 22,6 C 21,1 C 17,8 C 42 % 0 lf 1010,2 hPa 0,0 l/m 0 min 0 min 5 W/m 6,3 km/h (2 Bft) 97,87 %
08.05.2016 21:18 22,5 C 21,1 C 17,8 C 42 % 0 lf 1010,2 hPa 0,0 l/m 0 min 0 min 0 W/m 8,4 km/h (2 Bft) 93,62 %
08.05.2016 21:20 22,4 C 20,6 C 17,8 C 42 % 0 lf 1010,2 hPa 0,0 l/m 0 min 0 min 0 W/m 10,5 km/h (2 Bft) 91,49 %
08.05.2016 21:22 22,3 C 20,6 C 17,8 C 42 % 0 lf 1010,2 hPa 0,0 l/m 0 min 0 min 0 W/m 8,4 km/h (2 Bft) 89,13 %
08.05.2016 21:24 22,3 C 20,6 C 17,2 C 42 % 0 lf 1010,2 hPa 0,0 l/m 0 min 0 min 0 W/m 8,4 km/h (2 Bft) 91,49 %
08.05.2016 21:26 22,2 C 20,6 C 17,2 C 42 % 0 lf 1010,2 hPa 0,0 l/m 0 min 0 min 0 W/m 8,4 km/h (2 Bft) 89,36 %
08.05.2016 21:28 22,1 C 20,6 C 17,2 C 42 % 0 lf 1010,2 hPa 0,0 l/m 0 min 0 min 0 W/m 6,3 km/h (2 Bft) 89,36 %
08.05.2016 21:30 22,1 C 20,6 C 17,2 C 42 % 0 lf 1010,3 hPa 0,0 l/m 0 min 0 min 0 W/m 6,3 km/h (2 Bft) 93,62 %
08.05.2016 21:32 22,0 C 20,6 C 16,7 C 43 % 0 lf 1010,3 hPa 0,0 l/m 0 min 0 min 0 W/m 6,3 km/h (2 Bft) 93,62 %
08.05.2016 21:34 21,9 C 20,0 C 16,7 C 43 % 0 lf 1010,3 hPa 0,0 l/m 0 min 0 min 0 W/m 6,3 km/h (2 Bft) 89,13 %
08.05.2016 21:36 21,8 C 20,0 C 16,7 C 43 % 0 lf 1010,3 hPa 0,0 l/m 0 min 0 min 0 W/m 4,2 km/h (1 Bft) 93,62 %
08.05.2016 21:38 21,8 C 20,0 C 16,7 C 44 % 0 lf 1010,3 hPa 0,0 l/m 0 min 0 min 0 W/m 6,3 km/h (2 Bft) 91,49 %
08.05.2016 21:40 21,7 C 20,0 C 16,7 C 44 % 0 lf 1010,4 hPa 0,0 l/m 0 min 0 min 0 W/m 4,2 km/h (1 Bft) 93,62 %
08.05.2016 21:42 21,7 C 20,0 C 16,7 C 44 % 0 lf 1010,4 hPa 0,0 l/m 0 min 0 min 0 W/m 6,3 km/h (2 Bft) 93,62 %
08.05.2016 21:44 21,6 C 20,0 C 16,1 C 44 % 0 lf 1010,4 hPa 0,0 l/m 0 min 0 min 0 W/m 8,4 km/h (2 Bft) 91,49 %
08.05.2016 21:46 21,5 C 19,4 C 16,1 C 45 % 0 lf 1010,4 hPa 0,0 l/m 0 min 0 min 0 W/m 10,5 km/h (2 Bft) 95,65 %
08.05.2016 21:48 21,4 C 20,0 C 16,7 C 44 % 0 lf 1010,5 hPa 0,0 l/m 0 min 0 min 0 W/m 6,3 km/h (2 Bft) 93,62 %
08.05.2016 21:50 21,3 C 20,0 C 16,7 C 44 % 0 lf 1010,5 hPa 0,0 l/m 0 min 0 min 0 W/m 8,4 km/h (2 Bft) 95,74 %
08.05.2016 21:52 21,2 C 20,0 C 16,7 C 44 % 0 lf 1010,5 hPa 0,0 l/m 0 min 0 min 0 W/m 10,5 km/h (2 Bft) 95,74 %
08.05.2016 21:54 21,1 C 20,0 C 16,7 C 44 % 0 lf 1010,6 hPa 0,0 l/m 0 min 0 min 0 W/m 8,4 km/h (2 Bft) 95,74 %
08.05.2016 21:56 21,1 C 20,0 C 16,1 C 44 % 0 lf 1010,6 hPa 0,0 l/m 0 min 0 min 0 W/m 6,3 km/h (2 Bft) 95,74 %
08.05.2016 21:58 21,0 C 19,4 C 16,1 C 45 % 0 lf 1010,6 hPa 0,0 l/m 0 min 0 min 0 W/m 6,3 km/h (2 Bft) 93,48 %
08.05.2016 22:00 20,9 C 19,4 C 16,1 C 45 % 0 lf 1010,6 hPa 0,0 l/m 0 min 0 min 0 W/m 8,4 km/h (2 Bft) 95,74 %
08.05.2016 22:02 20,9 C 19,4 C 16,1 C 45 % 0 lf 1010,7 hPa 0,0 l/m 0 min 0 min 0 W/m 6,3 km/h (2 Bft) 93,62 %
08.05.2016 22:04 20,8 C 18,9 C 16,1 C 45 % 0 lf 1010,7 hPa 0,0 l/m 0 min 0 min 0 W/m 4,2 km/h (1 Bft) 95,74 %
08.05.2016 22:06 20,7 C 18,9 C 16,1 C 46 % 0 lf 1010,7 hPa 0,0 l/m 0 min 0 min 0 W/m 6,3 km/h (2 Bft) 93,62 %
08.05.2016 22:08 20,7 C 18,9 C 15,6 C 46 % 0 lf 1010,8 hPa 0,0 l/m 0 min 0 min 0 W/m 6,3 km/h (2 Bft) 95,74 %
08.05.2016 22:10 20,6 C 18,9 C 15,6 C 46 % 0 lf 1010,8 hPa 0,0 l/m 0 min 0 min 0 W/m 12,6 km/h (3 Bft) 95,65 %
08.05.2016 22:12 20,5 C 18,9 C 15,6 C 46 % 0 lf 1010,8 hPa 0,0 l/m 0 min 0 min 0 W/m 6,3 km/h (2 Bft) 95,74 %
08.05.2016 22:14 20,4 C 18,9 C 15,6 C 46 % 0 lf 1010,8 hPa 0,0 l/m 0 min 0 min 0 W/m 14,6 km/h (3 Bft) 100,00 %
08.05.2016 22:16 20,4 C 18,9 C 15,6 C 46 % 0 lf 1010,8 hPa 0,0 l/m 0 min 0 min 0 W/m 10,5 km/h (2 Bft) 95,74 %
08.05.2016 22:18 20,3 C 20,0 C 16,7 C 47 % 0 lf 1010,8 hPa 0,0 l/m 0 min 0 min 0 W/m 14,6 km/h (3 Bft) 93,62 %
08.05.2016 22:20 20,2 C 20,0 C 17,2 C 47 % 0 lf 1010,8 hPa 0,0 l/m 0 min 0 min 0 W/m 18,8 km/h (3 Bft) 93,62 %
08.05.2016 22:22 20,2 C 20,0 C 17,8 C 48 % 0 lf 1010,8 hPa 0,0 l/m 0 min 0 min 0 W/m 16,7 km/h (3 Bft) 97,83 %
08.05.2016 22:24 20,2 C 20,0 C 17,8 C 49 % 0 lf 1010,9 hPa 0,0 l/m 0 min 0 min 0 W/m 14,6 km/h (3 Bft) 100,00 %
08.05.2016 22:26 20,2 C 20,0 C 17,8 C 49 % 0 lf 1011,0 hPa 0,0 l/m 0 min 0 min 0 W/m 14,6 km/h (3 Bft) 97,87 %
08.05.2016 22:28 20,2 C 20,0 C 17,8 C 50 % 0 lf 1010,9 hPa 0,0 l/m 0 min 0 min 0 W/m 14,6 km/h (3 Bft) 97,87 %
08.05.2016 22:30 20,1 C 20,0 C 17,8 C 50 % 0 lf 1010,9 hPa 0,0 l/m 0 min 0 min 0 W/m 10,5 km/h (2 Bft) 100,00 %
08.05.2016 22:32 20,1 C 20,0 C 17,2 C 50 % 0 lf 1010,9 hPa 0,0 l/m 0 min 0 min 0 W/m 16,7 km/h (3 Bft) 100,00 %
08.05.2016 22:34 20,1 C 20,0 C 17,8 C 51 % 0 lf 1011,0 hPa 0,0 l/m 0 min 0 min 0 W/m 16,7 km/h (3 Bft) 100,00 %
08.05.2016 22:36 20,1 C 20,0 C 17,2 C 52 % 0 lf 1010,9 hPa 0,0 l/m 0 min 0 min 0 W/m 12,6 km/h (3 Bft) 95,74 %
08.05.2016 22:38 20,1 C 19,4 C 17,2 C 52 % 0 lf 1011,0 hPa 0,0 l/m 0 min 0 min 0 W/m 6,3 km/h (2 Bft) 95,74 %
08.05.2016 22:40 20,1 C 20,0 C 17,2 C 52 % 0 lf 1011,0 hPa 0,0 l/m 0 min 0 min 0 W/m 14,6 km/h (3 Bft) 97,87 %
08.05.2016 22:42 20,1 C 19,4 C 17,2 C 52 % 0 lf 1011,0 hPa 0,0 l/m 0 min 0 min 0 W/m 10,5 km/h (2 Bft) 97,87 %
08.05.2016 22:44 20,1 C 19,4 C 17,2 C 52 % 0 lf 1011,1 hPa 0,0 l/m 0 min 0 min 0 W/m 8,4 km/h (2 Bft) 97,83 %
08.05.2016 22:46 20,1 C 19,4 C 17,2 C 52 % 0 lf 1011,1 hPa 0,0 l/m 0 min 0 min 0 W/m 10,5 km/h (2 Bft) 97,87 %
08.05.2016 22:48 20,1 C 19,4 C 17,2 C 53 % 0 lf 1011,1 hPa 0,0 l/m 0 min 0 min 0 W/m 16,7 km/h (3 Bft) 97,87 %
08.05.2016 22:50 20,0 C 19,4 C 17,2 C 53 % 0 lf 1011,1 hPa 0,0 l/m 0 min 0 min 0 W/m 10,5 km/h (2 Bft) 97,87 %
08.05.2016 22:52 20,0 C 19,4 C 17,2 C 53 % 0 lf 1011,1 hPa 0,0 l/m 0 min 0 min 0 W/m 18,8 km/h (3 Bft) 93,62 %
08.05.2016 22:54 20,0 C 19,4 C 17,2 C 53 % 0 lf 1011,1 hPa 0,0 l/m 0 min 0 min 0 W/m 16,7 km/h (3 Bft) 97,87 %
08.05.2016 22:56 19,9 C 19,4 C 17,2 C 54 % 0 lf 1011,1 hPa 0,0 l/m 0 min 0 min 0 W/m 14,6 km/h (3 Bft) 97,83 %
08.05.2016 22:58 19,9 C 20,0 C 17,8 C 54 % 0 lf 1011,0 hPa 0,0 l/m 0 min 0 min 0 W/m 20,9 km/h (4 Bft) 93,62 %
08.05.2016 23:00 19,9 C 20,0 C 17,8 C 54 % 0 lf 1011,1 hPa 0,0 l/m 0 min 0 min 0 W/m 20,9 km/h (4 Bft) 95,74 %
08.05.2016 23:02 19,9 C 20,0 C 17,8 C 55 % 0 lf 1011,1 hPa 0,0 l/m 0 min 0 min 0 W/m 18,8 km/h (3 Bft) 95,74 %
08.05.2016 23:04 19,9 C 20,0 C 17,8 C 55 % 0 lf 1011,2 hPa 0,0 l/m 0 min 0 min 0 W/m 16,7 km/h (3 Bft) 93,62 %
08.05.2016 23:06 19,9 C 20,0 C 17,8 C 55 % 0 lf 1011,2 hPa 0,0 l/m 0 min 0 min 0 W/m 14,6 km/h (3 Bft) 95,74 %
08.05.2016 23:08 19,9 C 20,0 C 17,8 C 55 % 0 lf 1011,3 hPa 0,0 l/m 0 min 0 min 0 W/m 16,7 km/h (3 Bft) 97,83 %
08.05.2016 23:10 19,9 C 19,4 C 17,8 C 55 % 0 lf 1011,3 hPa 0,0 l/m 0 min 0 min 0 W/m 12,6 km/h (3 Bft) 93,62 %
08.05.2016 23:12 19,9 C 19,4 C 17,8 C 55 % 0 lf 1011,3 hPa 0,0 l/m 0 min 0 min 0 W/m 10,5 km/h (2 Bft) 93,62 %
08.05.2016 23:14 19,9 C 19,4 C 17,8 C 55 % 0 lf 1011,3 hPa 0,0 l/m 0 min 0 min 0 W/m 10,5 km/h (2 Bft) 95,74 %
08.05.2016 23:16 19,9 C 19,4 C 17,2 C 56 % 0 lf 1011,3 hPa 0,0 l/m 0 min 0 min 0 W/m 12,6 km/h (3 Bft) 95,74 %
08.05.2016 23:18 19,9 C 18,9 C 17,2 C 56 % 0 lf 1011,3 hPa 0,0 l/m 0 min 0 min 0 W/m 10,5 km/h (2 Bft) 95,83 %
08.05.2016 23:20 19,9 C 18,9 C 17,2 C 56 % 0 lf 1011,3 hPa 0,0 l/m 0 min 0 min 0 W/m 6,3 km/h (2 Bft) 95,65 %
08.05.2016 23:22 19,8 C 18,9 C 16,7 C 56 % 0 lf 1011,3 hPa 0,0 l/m 0 min 0 min 0 W/m 10,5 km/h (2 Bft) 95,74 %
08.05.2016 23:24 19,8 C 18,9 C 16,7 C 56 % 0 lf 1011,4 hPa 0,0 l/m 0 min 0 min 0 W/m 10,5 km/h (2 Bft) 95,74 %
08.05.2016 23:26 19,8 C 18,9 C 16,7 C 56 % 0 lf 1011,4 hPa 0,0 l/m 0 min 0 min 0 W/m 6,3 km/h (2 Bft) 91,49 %
08.05.2016 23:28 19,7 C 18,3 C 16,7 C 56 % 0 lf 1011,4 hPa 0,0 l/m 0 min 0 min 0 W/m 10,5 km/h (2 Bft) 95,74 %
08.05.2016 23:30 19,7 C 18,3 C 16,1 C 57 % 0 lf 1011,4 hPa 0,0 l/m 0 min 0 min 0 W/m 12,6 km/h (3 Bft) 95,74 %
08.05.2016 23:32 19,7 C 18,3 C 16,1 C 57 % 0 lf 1011,4 hPa 0,0 l/m 0 min 0 min 0 W/m 12,6 km/h (3 Bft) 100,00 %
08.05.2016 23:34 19,6 C 18,3 C 16,1 C 57 % 0 lf 1011,4 hPa 0,0 l/m 0 min 0 min 0 W/m 14,6 km/h (3 Bft) 97,87 %
08.05.2016 23:36 19,6 C 18,9 C 16,1 C 57 % 0 lf 1011,4 hPa 0,0 l/m 0 min 0 min 0 W/m 14,6 km/h (3 Bft) 95,74 %
08.05.2016 23:38 19,5 C 18,3 C 16,1 C 57 % 0 lf 1011,4 hPa 0,0 l/m 0 min 0 min 0 W/m 12,6 km/h (3 Bft) 95,74 %
08.05.2016 23:40 19,4 C 18,9 C 16,1 C 58 % 0 lf 1011,4 hPa 0,0 l/m 0 min 0 min 0 W/m 14,6 km/h (3 Bft) 95,74 %
08.05.2016 23:42 19,4 C 18,3 C 16,1 C 58 % 0 lf 1011,4 hPa 0,0 l/m 0 min 0 min 0 W/m 12,6 km/h (3 Bft) 95,65 %
08.05.2016 23:44 19,4 C 18,3 C 16,1 C 58 % 0 lf 1011,4 hPa 0,0 l/m 0 min 0 min 0 W/m 14,6 km/h (3 Bft) 95,74 %
08.05.2016 23:46 19,3 C 18,3 C 16,1 C 58 % 0 lf 1011,4 hPa 0,0 l/m 0 min 0 min 0 W/m 16,7 km/h (3 Bft) 100,00 %
08.05.2016 23:48 19,3 C 18,3 C 16,1 C 58 % 0 lf 1011,4 hPa 0,0 l/m 0 min 0 min 0 W/m 12,6 km/h (3 Bft) 97,87 %
08.05.2016 23:50 19,2 C 18,3 C 16,1 C 58 % 0 lf 1011,4 hPa 0,0 l/m 0 min 0 min 0 W/m 14,6 km/h (3 Bft) 100,00 %
08.05.2016 23:52 19,2 C 18,3 C 16,1 C 59 % 0 lf 1011,4 hPa 0,0 l/m 0 min 0 min 0 W/m 14,6 km/h (3 Bft) 97,87 %
08.05.2016 23:54 19,1 C 18,3 C 16,1 C 59 % 0 lf 1011,4 hPa 0,0 l/m 0 min 0 min 0 W/m 16,7 km/h (3 Bft) 97,83 %
08.05.2016 23:56 19,1 C 18,3 C 16,1 C 59 % 0 lf 1011,4 hPa 0,0 l/m 0 min 0 min 0 W/m 14,6 km/h (3 Bft) 100,00 %
08.05.2016 23:58 19,0 C 18,3 C 16,1 C 59 % 0 lf 1011,4 hPa 0,0 l/m 0 min 0 min 0 W/m 10,5 km/h (2 Bft) 100,00 %
_ Min-Zeit 06:52 05:02 04:50 14:58 00:00 19:08 - - - - 07:10 15:06
Minimum _ 13,2 C 12,8 C 10,6 C 31 % 0 lf 1009,1 hPa - - - - 2,1 km/h (1 Bft) 85,11 %
_ Max-Zeit 15:18 14:44 12:04 07:22 00:00 09:40 00:00 06:16 00:00 13:32 12:38 00:08
Maximum _ 27,4 C 33,9 C 30,6 C 72 % 0 lf 1011,5 hPa 0,0 l/m 2 min 0 min 904 W/m 46,0 km/h
O-SO (6 Bft)
100,00 %
Durchschnitt _ 21,0 C 22,5 C 19,4 C 49 % 0 lf 1010,4 hPa #0,0 l/m #13:44 h #0 min. 500 W/m 17,9 km/h (3 Bft) 96,15 %
© 2016 W. Hausmann